[{"header": {"dx": 0.06612293990616946, "dy": 0.0552356325346848, "nx": 98, "ny": 59, "la1": 35.046912555036876, "la2": 31.78801023549047, "lo1": -121.43107172385933, "lo2": -114.95102361305473, "refTime": "2026041010", "parameterCategory": 1, "parameterNumber": 2}, "data": [-0.0, -0.0, -0.0, -0.0, -0.0, -0.61, -0.61, -0.61, -0.65, -0.54, -0.57, -0.8, -1.26, -1.26, -1.26, -0.95, -2.24, -2.24, -1.34, -0.63, -0.0, 0.85, 1.88, 1.88, 2.86, 2.86, 3.45, 3.45, 2.53, 1.88, 0.54, -0.63, -1.79, -1.79, -1.79, -0.89, 0.0, 0.45, 0.0, 0.0, -0.45, 0.0, 0.95, 2.23, 4.6, 6.64, 8.24, 8.88, 8.55, 5.77, 4.8, 4.74, 5.72, 6.06, 6.06, 6.06, 6.39, 6.7, 7.07, 7.07, 7.03, 6.64, 6.44, 5.46, 3.79, 4.43, 6.08, 7.67, 9.2, 11.62, 12.56, 11.95, 10.25, 7.71, 6.79, 6.79, 3.82, 0.89, -1.26, -1.86, -2.5, -1.88, -1.88, -1.4, -0.79, 0.0, 0.87, 2.15, 4.46, 8.0, 9.84, 10.48, 10.53, 10.29, 9.92, 9.9, 8.88, 8.05, -0.0, -0.0, -0.0, -0.0, -0.0, -0.53, -0.65, -0.65, -0.65, -0.71, -0.0, -0.0, -1.26, -0.95, -0.0, -2.24, -1.79, -1.34, -1.34, -1.2, -0.0, -0.0, 1.4, 2.53, 2.53, 2.86, 2.86, 2.5, 1.9, 1.2, 0.53, -0.0, -0.63, -1.34, -1.79, -1.34, 0.45, 0.0, 0.0, 0.0, 0.0, 0.0, 1.49, 3.35, 5.37, 7.02, 8.32, 7.03, 4.02, 4.4, 5.09, 6.08, 6.44, 6.0, 5.38, 5.37, 6.06, 6.7, 7.44, 7.67, 7.6, 7.03, 6.07, 4.81, 3.72, 4.74, 6.39, 7.69, 9.27, 11.21, 12.56, 11.87, 9.83, 8.19, 6.98, 7.71, 7.45, 0.89, -1.26, -1.86, -2.5, -1.88, -1.88, -1.4, -0.79, 0.0, 0.87, 2.15, 4.46, 8.0, 9.84, 10.48, 10.53, 10.29, 9.92, 9.9, 8.88, 8.05, -0.0, -0.0, -0.0, -0.0, -0.0, -0.65, -0.54, -0.54, -0.54, -0.0, -0.0, -0.0, -0.0, -1.34, -1.34, -0.95, -1.34, -1.34, -1.79, -1.34, -1.2, -0.63, -0.0, 1.49, 2.53, 2.84, 2.53, 2.5, 1.86, -0.0, -0.0, -0.0, 0.65, 0.6, 0.63, 0.0, 0.45, 0.0, 0.0, 0.45, 0.0, 0.7, 2.88, 4.46, 5.49, 6.01, 5.05, 3.58, 3.84, 5.46, 6.07, 6.07, 6.07, 5.82, 4.75, 5.43, 6.08, 7.07, 7.28, 7.6, 7.6, 6.64, 5.46, 4.01, 3.64, 4.56, 6.32, 8.03, 9.3, 11.2, 12.29, 12.37, 10.93, 8.36, 5.77, 7.56, 9.36, 2.24, -1.49, -3.07, -2.86, -2.53, -2.15, -2.07, -1.27, -0.66, 0.66, 1.49, 4.74, 8.93, 11.5, 11.53, 10.55, 9.9, 9.27, 8.68, 7.67, 7.03, -0.0, -0.0, -0.0, -0.0, -0.0, -0.0, -0.54, -0.71, -0.57, -0.0, -0.0, -0.0, -0.0, -0.89, -1.34, -1.34, -0.45, -0.45, -0.89, -1.34, -1.34, -0.89, -0.0, -0.0, 1.2, 2.68, 2.79, 2.53, 1.9, -0.0, -0.0, -0.0, -0.0, 1.6, 2.86, 3.04, 2.68, 1.79, 1.26, 1.24, 1.16, 2.29, 3.0, 3.64, 3.79, 3.32, 3.07, 4.46, 5.09, 5.46, 5.31, 5.82, 5.43, 4.81, 4.43, 5.43, 6.44, 7.07, 7.6, 7.6, 7.47, 5.69, 3.72, 2.88, 3.79, 4.71, 6.53, 7.59, 9.21, 11.37, 12.94, 13.49, 11.66, 8.91, 5.36, 5.64, 8.01, 4.02, -1.26, -4.09, -4.09, -2.53, -2.15, -2.07, -2.79, -1.4, 0.0, 2.4, 5.94, 10.24, 12.52, 11.25, 10.24, 8.6, 6.07, 4.66, 6.07, 6.79, -0.0, -0.0, -0.0, -0.0, -0.0, -0.0, -0.0, -0.0, -0.57, -0.6, -0.0, -0.0, -0.0, 0.89, -1.34, -1.79, -0.89, 0.0, 0.0, -0.89, -0.89, 0.45, -0.0, -0.0, 0.54, 1.4, 2.68, 3.79, 2.53, 1.88, -0.0, -0.54, -0.0, 1.24, 3.2, 3.95, 3.95, 4.02, 3.07, 2.15, 2.53, 2.53, 3.32, 3.51, 3.58, 3.45, 4.46, 5.09, 5.09, 5.46, 4.84, 4.84, 4.46, 4.46, 5.09, 6.44, 6.7, 7.6, 8.14, 8.14, 6.94, 3.79, 2.29, 3.0, 3.8, 4.83, 5.38, 6.88, 8.53, 10.91, 13.43, 14.68, 13.21, 10.93, 6.71, 4.0, 3.49, 2.91, 0.0, -4.12, -4.73, -2.84, -2.15, -3.07, -4.46, -2.3, 0.7, 4.96, 8.46, 10.81, 10.86, 10.55, 7.64, 2.4, 1.26, 2.6, 6.66, 7.71, -0.0, -0.0, -0.0, -0.0, -0.0, -0.0, -0.0, -0.0, -0.0, -0.0, -0.0, 0.45, 0.89, 0.89, -1.34, -1.34, -0.95, 0.0, 0.4, 0.0, -0.63, 0.45, 0.0, 0.63, 1.26, 1.58, 2.21, 2.86, 3.22, 2.53, 1.88, 0.54, -0.0, 1.2, 2.68, 3.58, 4.02, 5.81, 3.97, 1.24, 0.57, 1.34, 3.07, 3.82, 4.4, 4.81, 4.74, 5.09, 5.09, 4.46, 3.49, 3.84, 4.12, 4.46, 5.09, 6.64, 6.94, 7.35, 8.4, 8.91, 5.05, 1.49, 1.52, 3.09, 3.8, 5.38, 5.76, 6.24, 7.64, 10.53, 12.94, 14.58, 14.42, 14.49, 11.86, 4.87, 1.16, 0.0, 0.0, -2.53, -4.43, -2.88, -2.11, -3.22, -3.55, -0.76, 3.78, 8.37, 10.04, 10.12, 9.48, 7.97, 1.86, -0.54, -0.0, 3.13, 8.19, 8.67, -0.0, -0.0, -0.0, -0.0, -0.0, -0.0, -0.0, -0.0, -0.0, -0.0, 0.45, 0.0, 0.45, 0.45, -1.34, -1.34, 0.0, 0.0, 0.99, 0.8, 0.0, 0.0, 0.0, 0.6, 1.34, 1.79, 2.24, 2.6, 2.6, 2.21, 1.6, 1.61, 1.49, 2.12, 2.68, 3.13, 3.58, 5.81, 3.58, 0.45, -1.34, -0.45, 0.89, 2.23, 2.53, 3.72, 4.56, 5.3, 4.74, 5.59, 5.24, 3.49, 4.84, 5.05, 5.34, 5.64, 6.07, 6.07, 7.92, 7.45, 2.5, -0.0, 1.47, 3.0, 3.2, 4.83, 5.59, 5.43, 7.03, 10.01, 12.37, 12.87, 13.4, 15.61, 15.78, 10.62, 1.86, -0.54, 0.0, 1.27, -2.2, -2.31, -2.31, -2.4, -0.77, 1.42, 6.31, 8.72, 9.31, 8.46, 5.59, 1.24, -0.71, -0.65, 1.2, 4.24, 9.08, 9.2, -0.0, -0.0, -0.0, -0.0, -0.0, -0.0, -0.0, -0.0, -0.0, -0.0, 0.89, 0.45, 0.45, 0.45, 1.34, -0.89, 0.0, 0.63, 1.26, 1.7, 1.34, 0.89, 0.6, 0.54, 1.0, 1.58, 1.58, 1.2, 0.45, 0.8, 1.9, 2.23, 2.23, 3.04, 3.58, 3.53, 3.39, 4.47, 4.47, 1.34, -0.89, -1.79, -1.34, 0.45, -0.0, 0.98, 3.2, 5.21, 6.01, 6.18, 2.86, 3.45, 4.84, 5.34, 5.16, 4.87, 4.92, 5.36, 7.15, 4.02, 1.24, -0.0, 0.61, 2.4, 3.35, 4.46, 6.0, 5.64, 6.26, 9.36, 11.6, 12.05, 13.41, 14.3, 14.29, 11.99, 7.11, 2.24, 2.5, 3.64, 2.04, -1.47, -1.36, -0.69, 0.7, 3.47, 6.36, 8.56, 8.76, 5.94, 1.26, -0.57, -0.65, -0.0, 2.17, 6.0, 8.63, 8.67, -0.0, -0.0, -0.0, -0.0, -0.0, -0.0, -0.0, -0.0, -0.0, 0.63, 0.89, 1.34, 1.34, 0.89, 0.0, 0.0, 0.0, 0.8, 0.6, 1.2, 0.89, 1.34, 1.79, 1.58, 1.2, 1.49, 0.71, 0.0, 0.0, 1.34, 2.24, 2.24, 2.24, 2.68, 3.13, 3.58, 3.2, 3.6, 3.51, 1.34, -0.89, -2.24, -2.24, -1.79, -0.95, -0.0, 0.76, 4.47, 6.32, 6.01, 6.52, 3.84, 4.46, 5.34, 5.16, 4.92, 4.47, 5.77, 5.31, 2.24, 0.71, 0.76, 0.76, 2.41, 3.22, 4.8, 6.51, 6.71, 6.28, 8.19, 10.25, 11.6, 12.94, 12.94, 11.62, 10.28, 8.94, 8.94, 9.81, 8.48, 3.79, -0.69, -0.71, 0.0, 1.43, 3.46, 5.54, 7.82, 7.27, 3.49, 1.2, 0.57, 0.6, 1.34, 2.8, 7.03, 8.3, 7.69, -0.0, -0.0, -0.0, -0.0, -0.0, -0.0, -0.0, -0.0, 0.63, 0.89, 1.34, 1.79, 1.79, 1.79, 0.95, 0.0, 0.0, 0.0, 0.0, 0.0, 0.0, 0.71, 1.58, 1.9, 1.4, 1.4, 0.71, 0.0, 0.0, 1.86, 2.8, 1.86, 0.89, 0.89, 1.79, 3.13, 3.95, 3.82, 2.68, 0.89, -0.95, -1.7, -1.34, -0.89, -0.0, -0.0, 0.65, 1.88, 3.72, 5.3, 5.59, 6.01, 5.72, 5.69, 5.34, 5.16, 4.47, 3.97, 2.8, 1.7, 1.41, 1.63, 2.09, 2.98, 3.79, 4.46, 6.79, 6.26, 5.6, 6.7, 8.55, 10.6, 11.75, 11.42, 10.65, 9.74, 9.11, 9.11, 10.98, 12.88, 9.4, 2.51, 0.0, 0.0, 1.36, 2.6, 4.28, 5.59, 5.38, 2.5, 2.24, 2.24, 2.17, 2.4, 4.22, 7.07, 8.06, 7.06, -0.0, -0.0, -0.0, -0.0, -0.0, -0.0, -0.0, 0.63, 0.63, 0.89, 1.34, 1.79, 2.24, 2.24, 2.68, 1.58, 0.8, 1.27, 1.16, 1.14, 0.0, 0.61, 1.16, 1.4, 1.41, 0.71, 0.71, 0.6, 0.6, 2.23, 2.23, 1.2, 0.0, 0.45, 0.6, 3.04, 3.58, 2.68, 1.34, 0.89, 0.0, 0.45, 0.45, 1.79, 1.2, 0.65, 0.61, 1.33, 2.07, 2.88, 4.0, 5.52, 6.79, 6.51, 6.14, 6.24, 7.02, 3.32, 0.95, -0.0, -0.0, 2.39, 2.99, 2.9, 3.8, 5.64, 6.95, 6.44, 3.58, 4.09, 6.64, 8.67, 9.18, 8.76, 9.18, 9.26, 8.0, 7.07, 8.63, 11.87, 11.28, 5.6, 1.2, 0.61, 1.27, 1.35, 3.26, 4.29, 4.11, 2.21, 2.53, 3.49, 3.49, 2.84, 5.46, 8.06, 8.06, 3.79, -0.0, -0.0, -0.0, -0.0, -0.0, -0.0, -0.0, 0.63, 0.63, 1.34, 1.34, 1.34, 1.79, 2.68, 2.68, 2.63, 2.4, 2.79, 3.43, 3.48, 3.43, 3.2, 2.91, 3.39, 3.13, 3.58, 4.02, 3.13, 2.24, 1.79, 1.79, 1.34, 0.45, 0.0, 0.63, 1.2, 1.34, -0.0, -0.45, 0.0, 0.0, -0.0, 1.26, 1.4, -0.0, -0.0, -0.0, -0.0, 1.03, 0.95, 1.55, 3.88, 5.3, 5.4, 5.4, 6.21, 7.69, 8.53, 2.15, -1.27, -0.79, 2.25, 2.97, 1.52, 1.58, 3.87, 6.9, 6.9, 6.14, 5.09, 5.94, 7.92, 7.6, 6.07, 5.69, 7.07, 6.08, 5.09, 6.35, 7.54, 7.21, 3.53, 1.9, 1.49, 1.9, 2.15, 2.88, 2.66, 1.84, 1.88, 2.73, 3.38, 3.64, 4.43, 6.7, 8.93, 6.44, 1.26, -0.0, 0.95, 0.6, -0.0, -0.0, -0.0, 0.63, 0.63, 0.95, 1.34, 1.34, 1.34, 1.79, 2.24, 2.68, 3.13, 3.53, 3.39, 4.3, 5.24, 5.7, 6.71, 7.13, 7.06, 7.06, 7.07, 7.51, 7.4, 6.47, 4.44, 3.13, 2.24, 0.89, 0.45, 0.45, -0.0, -0.63, -1.6, -1.34, -0.89, -0.0, -0.0, -0.0, -0.0, -0.0, -0.76, -0.76, -0.76, -0.0, -0.0, -0.0, 0.66, 1.27, 1.23, 2.16, 3.0, 5.45, 11.06, 8.24, -0.0, -2.39, 1.56, 1.5, -0.0, -0.0, 0.75, 3.53, 6.17, 7.01, 8.2, 9.02, 10.18, 9.92, 7.98, 4.47, 3.45, 2.5, 1.9, 2.53, 2.5, 1.86, 3.07, 3.07, 1.88, 1.9, 2.86, 3.48, 1.88, 1.9, 2.15, 2.53, 2.48, 2.66, 4.56, 7.64, 8.94, 5.05, 0.89, 0.63, 0.95, 0.95, 0.6, 0.95, 0.95, 0.63, 0.63, 1.2, 1.34, 1.79, 1.79, 1.79, 2.24, 2.68, 3.13, 3.53, 3.98, 4.34, 5.24, 6.23, 6.71, 7.6, 8.03, 8.47, 8.42, 8.42, 8.86, 8.41, 6.68, 4.92, 3.58, 2.68, 1.26, 0.89, -0.0, -0.0, -0.0, -0.0, -0.0, 0.45, -0.0, -0.0, -0.0, -0.0, -1.08, -0.71, -0.8, -0.8, -0.57, -0.0, -0.0, 0.45, 0.0, 0.0, 0.45, -0.0, 9.2, 13.2, 1.55, -3.15, -0.0, -0.0, -1.02, -1.54, -1.54, -0.0, 2.21, 5.2, 6.97, 9.02, 10.81, 11.53, 10.4, 7.28, 3.51, 1.26, 1.6, 2.24, 2.12, 1.49, 2.84, 4.66, 3.79, 1.4, 3.49, 3.83, 2.4, 2.6, 3.07, 3.74, 2.5, 2.98, 4.56, 6.95, 8.03, 4.4, 1.7, 0.63, 0.95, 0.95, 0.95, 0.95, 0.95, 0.95, 0.95, 1.2, 1.34, 1.79, 1.79, 2.24, 2.24, 2.63, 3.07, 3.53, 3.98, 4.44, 5.33, 5.78, 6.68, 7.15, 7.6, 8.05, 8.47, 8.47, 8.86, 8.42, 8.03, 6.71, 4.88, 3.82, 2.4, 2.24, 1.79, 1.58, 1.0, 1.58, 0.45, 0.0, 0.89, 0.89, -0.0, -0.0, -1.13, -1.13, -1.4, -1.9, -0.95, -0.0, 0.0, 0.0, 0.45, 0.45, -0.95, -0.8, 5.2, 11.89, 5.15, -1.47, -2.2, -2.2, -1.8, -2.0, -2.0, -1.6, -0.0, 2.16, 5.44, 7.64, 9.92, 11.62, 10.02, 6.66, 3.49, 2.98, 4.43, 4.8, 2.68, 1.9, 2.53, 4.11, 3.72, 2.88, 3.07, 2.86, 2.4, 2.6, 3.74, 4.66, 3.45, 2.79, 3.72, 5.69, 4.09, 2.8, 2.8, 1.2, 1.2, 1.2, 1.2, 1.2, 0.95, 0.95, 1.2, 1.2, 1.79, 1.79, 2.24, 2.24, 2.68, 2.63, 3.07, 3.53, 3.98, 4.44, 4.89, 5.78, 6.26, 7.15, 7.15, 7.6, 8.05, 8.49, 8.49, 8.92, 8.49, 7.15, 6.23, 4.34, 3.82, 3.13, 1.79, 2.0, 1.26, 2.8, 2.24, 0.45, 0.89, 1.79, -0.0, -0.0, -1.13, -1.27, -1.6, -0.0, -0.0, 1.34, 0.0, 0.45, 0.89, 0.89, 0.0, 0.57, 2.53, 4.92, 3.16, -0.0, -1.4, -2.53, -2.53, -1.6, -2.12, -2.0, -0.65, 1.14, 5.72, 8.24, 10.19, 11.62, 9.72, 4.47, 2.0, 4.6, 6.88, 7.68, 6.7, 4.66, 3.13, 2.86, 2.3, 1.7, 1.47, 2.3, 2.15, 2.84, 3.84, 5.43, 2.53, 2.15, 4.46, 5.72, 4.73, 3.48, 3.48, 1.2, 1.6, 1.6, 1.6, 1.6, 1.2, 1.2, 1.2, 1.6, 1.79, 2.24, 2.24, 2.24, 2.68, 2.63, 3.07, 3.53, 3.98, 4.44, 4.89, 5.34, 6.23, 6.71, 7.15, 7.6, 8.05, 8.49, 8.49, 8.94, 8.49, 8.03, 6.6, 5.09, 5.2, 3.04, 2.24, 2.24, 2.68, 1.79, 3.13, 1.58, 0.45, 0.89, -0.0, -0.0, -0.0, -0.0, -0.0, -0.0, -0.0, -0.0, -0.0, -0.0, 1.9, 1.9, 2.4, 2.68, 2.68, 1.4, 1.4, 1.4, -0.0, -0.0, -1.4, -1.58, -0.89, -1.34, -1.6, 0.71, 7.81, 12.47, 11.75, 11.09, 6.0, 1.86, 0.74, 4.5, 8.37, 9.9, 9.92, 9.3, 8.8, 6.98, 3.07, 0.65, 0.0, 1.41, 2.0, 3.22, 4.74, 4.12, 1.9, 1.9, 4.11, 6.06, 5.06, 3.72, 3.72, 1.7, 1.7, 1.7, 1.7, 1.7, 1.7, 1.6, 1.7, 1.7, 1.79, 2.24, 2.24, 2.68, 2.68, 3.13, 3.09, 3.53, 3.53, 3.98, 4.88, 5.33, 5.78, 5.79, 6.26, 7.13, 7.6, 8.05, 8.05, 8.03, 8.03, 7.58, 6.6, 5.51, 4.6, 4.11, 3.6, 2.6, 3.2, 2.8, 1.58, 0.6, 0.0, 0.0, 0.45, -0.0, -0.0, -0.0, -0.0, -0.0, -0.0, 1.6, 1.6, 1.6, 1.6, 1.4, 2.8, 1.6, 1.6, 1.6, 2.21, 2.8, 2.8, -0.0, -1.13, -1.41, -0.57, -0.63, -0.8, 0.76, 8.4, 14.86, 13.21, 8.63, 3.58, 1.16, 1.41, 5.38, 10.28, 12.47, 11.99, 11.09, 10.95, 10.93, 2.91, 0.0, 0.0, 0.0, 1.47, 3.11, 3.11, 2.84, 2.21, 2.53, 4.36, 5.3, 4.36, 3.64, 3.64, 2.17, 2.17, 2.12, 2.12, 2.12, 1.7, 1.7, 1.7, 2.12, 2.24, 2.24, 2.68, 2.68, 2.68, 3.13, 3.58, 3.09, 3.53, 3.58, 4.47, 5.33, 5.7, 4.8, 5.31, 5.81, 6.71, 5.78, 6.21, 6.21, 6.23, 6.26, 5.78, 5.24, 5.02, 5.02, 4.4, 4.27, 4.0, 2.5, 1.9, 0.99, 0.63, 0.89, 2.24, 1.4, 1.6, 1.4, 1.4, 1.4, 1.6, 1.6, 1.6, 1.6, 1.13, 1.27, 2.84, 2.53, 2.53, 3.82, 3.82, 4.02, 3.13, -0.0, -0.57, -2.41, -2.41, -0.57, 0.0, 2.88, 7.81, 12.79, 14.23, 14.7, 12.37, 8.4, 4.24, 4.92, 9.36, 12.87, 13.77, 12.07, 11.62, 10.7, 5.2, 0.54, 0.0, 0.0, 1.33, 2.47, 1.35, 1.49, 2.98, 4.36, 4.22, 4.56, 3.64, 2.98, 2.98, 2.6, 2.6, 2.6, 2.17, 2.17, 2.17, 2.17, 2.17, 2.24, 2.24, 2.68, 2.68, 2.68, 3.13, 3.13, 3.53, 3.53, 3.09, 4.02, 4.41, 5.31, 4.6, 4.11, 5.09, 5.34, 5.59, 5.75, 5.33, 5.34, 5.36, 5.36, 5.36, 5.36, 5.33, 5.24, 5.09, 5.51, 5.31, 5.09, 4.6, 3.87, 3.53, 3.58, 3.87, 3.6, 3.72, 2.84, 2.53, 1.4, 1.4, 1.4, 1.6, 1.13, 1.27, 0.76, 1.6, 3.48, 1.86, 2.12, 4.47, 4.02, 3.13, 1.34, -1.6, -1.9, -2.21, -1.24, -0.0, 2.68, 6.26, 9.83, 14.17, 18.16, 18.82, 16.09, 11.66, 9.3, 9.27, 12.87, 13.67, 13.32, 12.87, 11.4, 5.59, 0.0, -0.71, 0.0, 1.6, 1.16, 0.61, 1.41, 3.6, 4.6, 3.91, 2.9, 3.33, 2.98, 2.98, 3.07, 3.07, 2.63, 2.63, 2.6, 2.6, 2.17, 2.24, 2.68, 2.68, 2.68, 2.68, 3.13, 3.13, 3.13, 3.53, 3.53, 3.53, 3.82, 4.66, 5.29, 4.3, 4.3, 5.02, 5.4, 5.99, 6.16, 6.23, 6.26, 5.81, 6.23, 6.23, 6.26, 6.26, 5.81, 5.78, 5.7, 5.7, 5.78, 5.78, 5.34, 5.36, 4.92, 5.33, 4.8, 4.8, 4.0, 3.35, 2.21, 1.9, -0.0, -0.0, -0.0, -0.0, 1.27, 1.6, 2.21, 2.53, 3.82, 3.39, 2.8, 1.58, 1.34, -3.2, -1.6, -3.2, -1.58, -0.0, 2.15, 4.65, 6.88, 11.9, 16.85, 18.82, 16.91, 13.49, 9.81, 10.43, 10.81, 11.88, 13.29, 13.67, 12.94, 7.57, 1.6, -0.63, 0.0, 1.34, 3.13, 2.21, 2.47, 3.8, 3.2, 1.27, 1.27, 2.0, 2.07, 2.07, 3.53, 3.09, 3.09, 3.07, 3.07, 2.63, 2.68, 2.68, 2.68, 2.68, 2.68, 3.13, 3.13, 3.13, 3.58, 3.53, 3.53, 3.87, 4.3, 4.77, 4.89, 4.44, 4.44, 5.24, 5.57, 6.16, 6.16, 6.68, 6.71, 6.71, 6.71, 6.68, 6.68, 6.68, 6.71, 6.26, 6.26, 6.26, 6.26, 6.26, 6.26, 5.81, 5.81, 5.34, 5.33, 4.8, 5.2, 4.24, 2.8, 1.9, -0.0, -0.0, -0.0, -0.0, 1.27, 1.41, 1.49, 2.2, 2.48, 1.26, 0.0, -0.63, -1.34, -1.7, -1.6, -1.9, -1.58, -0.57, -0.0, -0.0, 2.06, 8.66, 15.13, 16.8, 6.24, 6.4, 8.35, 8.56, 8.74, 9.23, 10.9, 12.65, 12.87, 10.73, 6.26, 1.7, 0.63, 2.17, 5.44, 4.66, 4.74, 2.66, 1.2, 0.4, 0.6, 1.2, 1.4, 1.4, 3.53, 3.53, 3.53, 3.53, 3.09, 3.07, 3.13, 3.13, 3.13, 3.13, 3.13, 3.13, 3.13, 3.13, 3.58, 3.53, 3.53, 3.98, 4.3, 4.77, 4.89, 4.89, 5.33, 5.24, 5.7, 6.16, 6.16, 6.23, 6.71, 6.71, 6.71, 6.71, 6.71, 7.15, 7.15, 6.71, 6.71, 6.71, 6.26, 6.26, 6.26, 6.26, 5.81, 5.78, 5.34, 5.24, 5.26, 4.02, 3.13, 1.9, 1.58, -0.0, -0.0, -0.0, 1.6, -0.0, -0.0, 0.7, 1.4, 0.63, -0.6, -1.26, -0.89, -1.2, -1.26, -1.49, -0.71, -0.0, -0.0, -1.2, -1.49, 1.13, 16.53, 10.52, 0.0, 0.0, 3.47, 6.34, 7.3, 7.88, 8.51, 10.24, 10.8, 10.32, 9.26, 5.16, 2.86, 3.79, 7.69, 6.7, 4.75, 1.24, 0.89, 0.89, 0.89, 1.58, 1.88, 1.88, 3.87, 3.87, 3.87, 3.98, 3.53, 3.09, 3.13, 3.13, 3.13, 3.13, 3.13, 3.13, 3.13, 3.58, 3.58, 3.53, 3.98, 3.98, 4.43, 4.34, 4.88, 4.89, 5.33, 5.78, 5.7, 6.16, 6.16, 6.23, 6.23, 6.26, 6.26, 6.71, 6.71, 6.71, 6.71, 7.15, 7.15, 6.71, 6.71, 6.26, 6.26, 6.26, 5.81, 5.78, 5.78, 5.33, 5.81, 4.47, 3.58, 3.2, 2.8, 1.9, 1.9, -0.0, -0.0, -0.0, -0.0, -0.0, 1.49, 1.86, 0.0, -0.71, -0.6, -0.63, -1.24, -1.6, -0.0, -0.0, -0.0, -0.71, -1.2, 11.13, 17.42, 16.37, 7.81, 0.0, 0.0, 3.21, 4.1, 4.87, 6.42, 7.85, 9.2, 9.46, 9.27, 7.07, 5.37, 5.49, 5.37, 2.12, 1.86, 0.0, 0.89, 1.79, 2.17, 2.5, 2.53, 2.53, 4.3, 4.3, 3.87, 3.98, 3.98, 3.53, 3.58, 3.13, 3.13, 3.13, 3.13, 3.13, 3.13, 3.58, 3.58, 3.58, 3.98, 3.98, 3.98, 4.44, 4.44, 4.88, 4.89, 5.33, 5.78, 6.16, 6.23, 6.23, 6.23, 6.26, 6.26, 6.26, 6.26, 6.71, 6.71, 6.71, 7.15, 6.71, 6.71, 6.26, 6.26, 5.81, 5.81, 5.81, 5.78, 5.78, 5.78, 5.33, 4.88, 4.44, 3.98, 4.02, 2.8, 1.9, 1.9, -0.0, -0.0, -0.0, 0.45, 2.68, 2.68, 1.24, 0.0, -0.63, -0.85, -0.65, -0.7, -0.0, -0.0, 0.0, 1.7, 8.3, 15.61, 16.83, 17.73, 13.78, 4.02, 1.33, 3.14, 3.91, 4.95, 7.16, 8.31, 8.82, 7.97, 6.44, 5.09, 3.07, 0.6, -0.0, -0.0, -0.0, 1.34, 2.24, 2.63, 2.91, 2.68, 2.68, 4.3, 4.3, 4.3, 3.98, 3.98, 3.98, 3.53, 3.58, 3.58, 3.58, 3.13, 3.13, 3.58, 3.58, 3.58, 3.58, 3.98, 3.98, 3.98, 4.43, 4.44, 4.88, 4.89, 5.33, 5.78, 5.78, 5.78, 5.78, 5.78, 5.78, 5.81, 6.26, 6.26, 6.26, 6.26, 6.71, 6.71, 6.71, 6.71, 6.71, 6.26, 5.81, 5.81, 5.36, 5.36, 5.78, 5.78, 5.78, 5.7, 5.34, 5.33, 4.47, 4.47, 3.13, 2.4, 1.9, -0.0, 1.34, 1.34, 1.2, 3.13, 3.04, 1.86, 0.45, -0.71, -0.65, -0.79, -0.61, -0.0, 0.0, 1.6, 6.7, 11.06, 15.63, 17.25, 18.45, 18.09, 10.26, 3.91, 3.02, 4.71, 5.72, 8.01, 7.73, 6.28, 5.09, 5.43, 2.8, -0.0, -0.0, 0.63, 1.7, 2.17, 2.4, 2.91, 2.91, 2.91, 2.91, 4.34, 4.34, 4.3, 3.98, 3.98, 3.98, 3.54, 3.58, 3.58, 3.58, 3.58, 3.58, 3.58, 3.58, 3.58, 3.58, 4.02, 3.98, 3.98, 4.43, 4.44, 4.44, 4.88, 5.33, 5.33, 5.78, 5.78, 5.78, 5.78, 5.78, 5.81, 5.36, 5.81, 5.81, 5.81, 6.26, 6.26, 6.26, 6.71, 6.71, 6.26, 5.81, 5.81, 5.36, 5.36, 5.36, 5.78, 5.78, 5.78, 5.34, 5.36, 4.92, 4.47, 3.58, 3.13, 2.68, 2.24, 1.34, 0.0, 0.0, 1.6, 3.07, 3.47, 2.24, -0.0, -0.0, -0.0, -0.0, -0.0, 0.89, 1.49, 4.84, 7.89, 10.73, 12.37, 14.83, 19.51, 16.76, 6.06, 1.5, 3.04, 5.18, 6.2, 6.29, 5.52, 5.64, 6.08, 2.8, 1.2, 0.63, 0.89, 2.0, 2.4, 2.5, 2.5, 2.68, 3.07, 3.07, 4.34, 4.34, 4.3, 3.87, 3.98, 3.98, 3.98, 3.58, 3.58, 3.58, 3.58, 3.58, 3.58, 3.58, 3.58, 3.58, 4.02, 4.02, 4.02, 3.98, 4.44, 4.44, 4.88, 4.89, 5.33, 5.33, 5.34, 5.33, 5.33, 5.36, 5.36, 5.36, 5.36, 5.81, 5.81, 5.81, 5.81, 6.26, 6.26, 6.26, 6.26, 5.81, 5.81, 5.36, 5.33, 5.33, 5.36, 5.36, 5.36, 5.36, 5.36, 4.92, 4.47, 4.02, 3.58, 3.13, 2.68, 1.79, 0.45, -0.45, 0.0, 2.4, 3.51, 2.6, 0.57, -0.0, -0.0, -0.0, 0.0, 0.63, 2.12, 4.4, 6.0, 5.43, 7.45, 12.94, 17.43, 16.92, 4.92, 0.0, 1.56, 4.89, 5.92, 5.47, 4.96, 5.52, 4.29, 2.5, 2.6, 2.6, 2.15, 2.5, 2.91, 2.68, 2.5, 3.07, 3.07, 3.07, 4.11, 4.11, 4.3, 3.87, 3.98, 3.98, 3.98, 3.98, 3.58, 3.58, 3.58, 3.58, 3.58, 3.58, 4.02, 4.02, 4.02, 4.02, 4.02, 4.43, 4.44, 4.44, 4.88, 4.89, 5.33, 4.89, 4.89, 4.89, 4.92, 4.92, 5.36, 5.36, 5.36, 5.36, 5.36, 5.81, 5.81, 5.81, 6.26, 6.26, 6.26, 5.81, 5.36, 5.36, 4.85, 4.88, 5.36, 4.89, 4.88, 5.36, 5.36, 4.92, 4.47, 3.98, 3.98, 3.39, 3.39, 2.24, 0.45, -0.89, 0.0, 1.86, 2.6, 1.34, -0.0, -0.0, 0.61, 0.99, 0.45, 0.63, 1.7, 6.07, 7.71, 6.7, 8.53, 12.52, 15.03, 14.7, 8.49, 1.0, 0.0, 4.1, 6.6, 6.27, 4.8, 4.02, 2.79, 1.88, 2.53, 3.14, 2.84, 2.84, 3.14, 3.07, 3.07, 3.07, 3.07, 3.07, 4.11, 4.11, 4.3, 3.87, 3.98, 3.98, 3.98, 3.98, 4.02, 4.02, 4.02, 4.02, 4.02, 4.02, 4.02, 4.02, 4.02, 4.02, 4.02, 4.47, 4.44, 4.44, 4.92, 4.88, 4.89, 4.89, 4.89, 4.92, 4.92, 4.92, 4.92, 4.92, 5.36, 5.36, 5.36, 5.36, 5.36, 5.81, 5.81, 5.81, 5.81, 5.81, 5.36, 4.92, 4.02, 4.92, 5.81, 4.44, 3.98, 3.98, 4.44, 4.44, 4.43, 3.98, 3.87, 3.6, 3.2, 2.91, 1.26, 0.0, 0.0, 1.26, 1.7, 0.0, -0.99, -0.65, -0.0, 1.49, 2.24, 1.86, 2.53, 5.86, 9.81, 11.23, 11.54, 13.07, 13.76, 13.1, 11.23, 4.41, 1.16, 3.53, 5.77, 6.5, 5.95, 3.38, 2.53, 1.88, 2.51, 2.84, 2.5, 2.4, 2.91, 3.45, 3.6, 3.6, 3.82, 3.82, 4.11, 4.11, 4.3, 3.87, 3.87, 3.98, 3.98, 3.98, 3.98, 4.02, 4.02, 4.02, 4.02, 4.02, 4.02, 4.02, 4.02, 4.02, 4.02, 4.47, 4.47, 4.47, 4.47, 4.92, 4.92, 4.92, 4.92, 4.92, 4.92, 4.92, 4.92, 4.92, 4.92, 4.92, 4.92, 5.36, 5.36, 5.36, 5.81, 5.81, 5.81, 5.81, 5.36, 4.92, 4.44, 5.29, 5.75, 4.44, 3.53, 3.98, 4.43, 4.44, 4.43, 3.98, 3.87, 3.6, 3.72, 3.72, 3.07, 1.9, 0.8, 1.26, 0.63, -1.79, -1.24, -1.0, -0.6, 1.34, 3.13, 4.98, 2.15, 2.23, 7.15, 13.86, 16.37, 15.67, 14.76, 11.87, 10.87, 10.75, 5.05, 2.2, 4.12, 5.92, 6.61, 6.34, 5.37, 3.14, 2.5, 2.4, 2.17, 2.24, 2.63, 3.53, 3.97, 4.47, 4.47, 4.47, 4.11, 4.11, 4.3, 4.3, 4.3, 3.98, 3.98, 3.98, 3.98, 3.98, 4.02, 4.02, 4.02, 4.02, 4.02, 4.02, 4.02, 4.02, 4.02, 4.47, 4.47, 4.47, 4.47, 4.92, 4.92, 4.92, 4.47, 4.47, 4.92, 4.47, 4.47, 4.47, 4.47, 4.92, 4.92, 4.92, 4.92, 5.36, 5.36, 5.36, 5.81, 5.81, 5.81, 5.36, 5.33, 5.24, 5.24, 4.44, 4.02, 4.43, 4.44, 4.44, 4.44, 4.44, 4.43, 3.87, 4.11, 3.88, 3.88, 3.35, 2.21, 1.26, -0.63, -1.2, -1.24, -0.71, -0.63, 0.95, 3.2, 5.81, 1.7, 0.0, 1.2, 10.73, 19.67, 20.63, 14.11, 8.6, 8.65, 12.25, 11.8, 5.2, 2.51, 5.08, 6.32, 6.92, 6.28, 6.15, 3.45, 3.07, 2.68, 2.0, 2.8, 3.32, 3.97, 4.87, 5.2, 5.2, 4.11, 4.11, 4.3, 4.3, 4.3, 4.44, 4.43, 4.43, 4.43, 3.98, 3.98, 4.02, 4.02, 4.02, 4.02, 4.02, 4.02, 4.02, 4.02, 4.47, 4.47, 4.47, 4.47, 4.47, 4.92, 4.47, 4.47, 4.47, 4.44, 4.92, 4.02, 4.02, 4.47, 4.47, 4.47, 4.92, 4.92, 4.92, 5.36, 5.36, 5.36, 5.81, 5.81, 5.36, 5.33, 5.33, 5.33, 4.89, 4.88, 4.88, 4.89, 4.89, 4.89, 4.88, 4.88, 4.34, 4.34, 4.11, 4.52, 4.6, 4.11, 0.63, 0.45, -0.0, -0.6, -0.85, -0.0, 0.45, 1.86, 2.54, 1.26, -0.0, 0.0, 7.03, 19.07, 25.43, 12.37, 0.61, 1.33, 7.85, 12.49, 10.98, 6.58, 4.73, 7.01, 7.71, 7.71, 7.2, 4.66, 3.53, 3.13, 2.8, 2.8, 3.32, 4.73, 5.16, 5.2, 5.2, 4.19, 4.19, 4.19, 4.34, 4.34, 4.34, 4.44, 4.44, 4.44, 4.43, 3.98, 3.98, 4.02, 4.02, 4.02, 4.02, 4.02, 4.02, 4.02, 4.47, 4.47, 4.47, 4.47, 4.47, 4.47, 4.47, 4.47, 4.44, 4.44, 4.47, 4.02, 4.02, 4.02, 4.47, 4.47, 4.47, 4.47, 4.92, 4.92, 5.36, 5.36, 5.36, 5.81, 5.81, 5.33, 5.33, 5.33, 4.89, 4.89, 4.89, 4.89, 5.33, 5.33, 5.33, 4.8, 4.77, 4.77, 4.44, 4.34, 4.77, 4.34, 2.68, 1.79, -0.0, -0.0, -1.58, -1.9, -0.63, 0.0, 0.45, 0.6, 1.26, 2.97, 8.03, 15.9, 23.57, 16.97, 2.68, 0.0, 3.72, 9.18, 11.28, 11.42, 10.05, 9.28, 10.13, 10.58, 9.68, 7.12, 4.92, 3.97, 4.8, 4.93, 5.64, 5.77, 5.2, 5.77, 5.77, 4.6, 4.6, 4.6, 4.34, 4.34, 4.34, 4.34, 4.44, 4.44, 4.44, 4.43, 4.43, 3.98, 4.02, 3.98, 4.02, 4.02, 4.02, 4.02, 4.47, 4.47, 4.47, 4.47, 4.47, 4.47, 4.47, 4.47, 4.47, 4.47, 4.47, 4.47, 4.47, 4.47, 4.47, 4.47, 4.47, 4.47, 4.92, 4.92, 4.92, 5.36, 5.36, 5.36, 5.81, 5.81, 5.33, 5.33, 5.33, 4.89, 4.89, 4.89, 5.33, 5.33, 5.33, 5.24, 4.77, 4.77, 4.34, 4.44, 4.88, 4.43, 4.02, 3.13, 1.58, -0.0, -1.9, -2.4, -2.12, -1.34, -0.45, -0.0, 2.4, 7.15, 11.09, 13.89, 17.27, 18.96, 16.33, 11.86, 9.72, 9.86, 10.26, 10.88, 10.67, 10.63, 12.01, 12.46, 11.18, 9.39, 8.36, 7.28, 6.79, 7.42, 7.01, 7.12, 6.67, 6.22, 6.22, 4.6, 4.6, 4.6, 4.6, 4.77, 4.34, 4.34, 4.34, 4.34, 4.44, 4.44, 4.44, 4.43, 4.43, 3.98, 3.98, 4.02, 4.02, 4.02, 4.47, 4.47, 4.47, 4.47, 4.47, 4.47, 4.47, 4.47, 4.47, 4.47, 4.47, 4.47, 4.02, 4.02, 4.47, 4.47, 4.47, 4.47, 4.92, 4.92, 4.92, 5.36, 5.36, 5.36, 5.36, 5.81, 5.34, 5.33, 5.24, 4.8, 4.77, 4.77, 4.88, 4.89, 5.24, 5.24, 4.77, 4.77, 4.34, 4.34, 4.44, 4.88, 3.98, 4.02, 1.34, -0.0, -1.58, -1.6, -2.24, -1.79, -1.34, -0.0, 0.6, 6.17, 11.18, 13.21, 13.32, 15.18, 18.06, 19.97, 20.1, 16.44, 9.97, 6.96, 6.13, 6.67, 8.05, 8.94, 9.39, 9.36, 9.36, 8.82, 8.38, 8.36, 8.46, 8.02, 7.6, 5.81, 5.81, 5.02, 5.02, 4.6, 4.6, 4.77, 4.77, 4.77, 4.34, 4.34, 4.34, 4.44, 4.44, 4.44, 4.43, 4.43, 3.98, 4.02, 4.47, 4.47, 4.47, 4.47, 4.47, 4.47, 4.47, 4.47, 4.47, 4.47, 4.47, 4.02, 4.02, 4.02, 4.02, 4.02, 4.02, 4.47, 4.47, 4.47, 4.47, 4.92, 4.92, 4.92, 4.92, 4.92, 5.81, 5.36, 5.36, 5.33, 5.24, 4.8, 4.77, 4.77, 4.77, 4.77, 4.8, 4.8, 4.77, 4.77, 4.34, 4.34, 4.34, 4.34, 3.87, 4.02, 1.79, 0.89, 1.34, -1.34, -1.34, -1.34, -0.0, -0.0, -0.0, 2.84, 12.31, 14.75, 13.05, 12.58, 15.78, 20.32, 22.6, 19.01, 10.8, 3.45, 2.15, 3.07, 5.36, 7.15, 7.15, 7.6, 8.49, 8.46, 8.46, 8.46, 8.94, 8.49, 8.49, 8.05, 7.15, 4.8, 4.8, 4.6, 4.6, 4.6, 4.77, 4.77, 4.77, 4.77, 4.34, 4.34, 4.34, 4.34, 4.44, 4.43, 4.43, 4.43, 4.47, 4.47, 4.47, 4.47, 4.47, 4.47, 4.47, 4.47, 4.47, 4.47, 4.02, 4.02, 4.02, 4.02, 4.02, 4.02, 4.02, 4.02, 4.47, 4.47, 4.47, 4.92, 4.92, 4.92, 4.92, 4.47, 4.92, 5.36, 5.81, 5.7, 5.24, 4.77, 4.77, 4.34, 4.34, 4.77, 4.77, 4.77, 4.77, 4.34, 4.34, 4.34, 4.34, 4.34, 4.3, 3.82, 1.79, 0.45, 0.89, 1.34, 0.45, 0.45, 0.89, -0.0, -0.0, 2.12, 11.6, 17.43, 14.73, 11.62, 13.99, 17.43, 19.91, 17.31, 12.94, 7.04, 2.91, 1.86, 3.51, 5.32, 5.81, 5.81, 6.71, 7.15, 7.6, 8.05, 8.94, 8.94, 8.49, 8.49, 8.05, 4.9, 4.9, 5.09, 4.6, 4.6, 4.6, 4.77, 4.77, 4.77, 4.77, 4.77, 4.34, 4.34, 4.34, 4.44, 4.44, 4.44, 4.44, 4.47, 4.47, 4.47, 4.47, 4.47, 4.47, 4.47, 4.02, 4.02, 4.02, 4.02, 4.02, 4.02, 4.02, 4.02, 4.02, 4.02, 4.02, 4.47, 4.47, 4.47, 4.92, 4.88, 4.88, 4.44, 3.98, 5.36, 5.78, 5.7, 4.77, 4.3, 4.3, 4.3, 4.3, 4.34, 4.77, 4.77, 4.77, 4.34, 4.34, 4.34, 4.34, 4.3, 4.3, 3.39, 3.58, 1.79, 0.89, 0.0, 0.45, 0.45, 0.89, -0.0, 0.45, 1.6, 8.49, 15.49, 16.22, 14.3, 13.07, 13.99, 13.92, 13.25, 12.5, 11.15, 6.58, 2.8, 2.8, 4.43, 4.92, 4.92, 6.26, 6.26, 7.15, 7.6, 8.49, 8.49, 8.49, 8.46, 8.49, 4.9, 4.9, 5.09, 5.02, 4.6, 4.6, 4.6, 4.77, 4.77, 4.77, 4.77, 4.77, 4.34, 4.34, 4.34, 4.44, 4.44, 4.44, 4.47, 4.47, 4.47, 4.47, 4.47, 4.02, 4.02, 4.02, 4.02, 4.02, 4.02, 4.02, 4.02, 4.02, 4.02, 4.02, 4.02, 4.02, 4.47, 4.47, 4.44, 4.88, 4.88, 4.88, 4.44, 4.3, 4.6, 6.02, 5.24, 4.3, 3.87, 3.87, 4.3, 4.3, 4.3, 4.34, 4.34, 4.34, 4.34, 4.34, 4.34, 4.11, 4.11, 4.11, 4.77, 3.39, 2.68, 1.79, 0.45, 1.34, 0.0, -0.0, -0.0, 0.0, 0.71, 2.98, 8.94, 15.04, 18.65, 17.86, 12.09, 6.08, 4.0, 5.78, 8.49, 8.05, 4.87, 3.07, 3.53, 4.02, 5.36, 6.26, 6.66, 6.67, 7.12, 8.01, 8.46, 8.46, 8.46, 8.46, 4.9, 4.9, 5.09, 5.09, 5.09, 4.6, 4.6, 4.6, 4.6, 4.77, 4.77, 4.77, 4.34, 4.34, 4.34, 4.34, 4.44, 4.44, 4.47, 4.47, 4.47, 4.47, 4.02, 4.02, 4.02, 4.02, 4.02, 4.02, 4.02, 4.02, 4.02, 4.02, 4.02, 4.02, 4.02, 4.02, 4.02, 4.44, 4.44, 4.44, 4.88, 4.88, 4.77, 4.77, 5.02, 5.09, 4.8, 4.44, 3.98, 3.87, 4.3, 4.3, 4.3, 4.3, 4.3, 4.3, 4.3, 4.34, 4.34, 4.11, 4.11, 4.11, 4.11, 3.82, 3.13, 2.68, 1.79, 0.89, -0.0, -0.0, 0.45, 0.0, 0.71, 1.9, 4.4, 10.68, 17.42, 22.13, 15.57, 3.07, 0.57, 3.07, 5.36, 8.05, 6.71, 5.36, 3.97, 3.97, 5.32, 6.66, 7.45, 7.92, 7.92, 7.89, 8.36, 8.36, 8.36, 8.36, 4.9, 4.9, 5.09, 5.09, 5.09, 5.09, 4.66, 4.6, 4.6, 4.6, 4.6, 4.77, 4.77, 4.34, 4.34, 4.34, 4.44, 4.44, 4.44, 4.47, 4.47, 4.47, 4.02, 4.02, 4.02, 4.02, 4.02, 4.02, 4.02, 4.02, 3.58, 3.58, 4.02, 4.02, 4.02, 4.02, 4.02, 4.44, 4.44, 4.44, 4.88, 4.88, 4.77, 4.77, 4.77, 4.77, 4.77, 4.44, 4.34, 4.34, 4.3, 4.34, 4.34, 4.34, 4.3, 4.3, 4.3, 4.3, 4.34, 4.3, 4.11, 4.6, 4.11, 4.34, 3.13, 2.68, 1.9, 1.26, -0.0, -0.0, 0.0, 0.0, 0.0, 1.6, 4.74, 7.69, 12.77, 18.71, 20.29, 14.92, 8.63, 7.01, 8.91, 9.39, 9.36, 8.46, 7.12, 6.11, 6.36, 7.71, 8.19, 8.19, 8.4, 8.4, 8.19, 8.19, 8.19, 8.19, 4.9, 4.9, 5.09, 5.09, 5.09, 5.09, 5.09, 5.09, 4.6, 4.6, 4.6, 4.6, 4.77, 4.77, 4.34, 4.34, 4.44, 4.44, 4.44, 4.47, 4.47, 4.47, 4.02, 4.02, 4.02, 4.02, 4.02, 4.02, 3.58, 3.58, 3.58, 3.58, 3.58, 4.02, 4.02, 3.98, 3.98, 4.43, 4.44, 4.44, 4.44, 4.88, 4.77, 4.77, 4.77, 4.77, 4.77, 4.34, 4.34, 4.34, 4.34, 4.34, 4.77, 4.34, 4.34, 4.3, 4.3, 4.3, 4.34, 4.3, 4.11, 4.6, 4.6, 4.3, 4.02, 2.68, 1.9, 1.26, 1.0, -0.0, 0.89, 0.0, 0.65, 2.07, 3.79, 4.46, 7.56, 12.52, 17.0, 18.04, 16.72, 16.34, 16.68, 13.84, 10.19, 8.67, 8.67, 8.48, 8.14, 7.6, 8.99, 8.14, 8.55, 8.55, 8.0, 7.89, 7.89, 7.89, 4.9, 4.9, 5.09, 5.09, 5.09, 5.09, 5.09, 5.09, 4.6, 4.6, 4.6, 4.6, 4.77, 4.77, 4.77, 4.77, 4.88, 4.44, 4.44, 4.47, 4.47, 4.47, 4.02, 4.02, 4.02, 4.02, 4.02, 4.02, 3.58, 3.58, 3.58, 3.58, 3.58, 4.02, 3.98, 3.98, 3.98, 3.98, 4.43, 4.44, 4.44, 4.88, 4.77, 4.77, 4.77, 4.77, 4.77, 4.34, 4.34, 4.34, 4.34, 4.77, 4.6, 4.6, 4.19, 4.3, 4.3, 4.34, 4.34, 4.34, 4.3, 4.19, 4.77, 4.34, 3.53, 3.58, 2.24, 1.34, 0.89, 0.89, 1.26, 1.0, 0.71, 1.61, 2.4, 2.24, 4.41, 9.36, 12.09, 11.53, 13.8, 18.72, 21.94, 18.08, 11.99, 7.33, 7.46, 9.45, 9.27, 9.38, 8.34, 7.67, 8.05, 7.67, 7.6, 7.03, 7.03, 7.03, 4.9, 4.9, 5.09, 5.09, 5.09, 5.09, 5.09, 5.09, 4.6, 4.6, 4.6, 4.6, 4.77, 4.77, 4.77, 4.77, 4.88, 4.88, 4.44, 4.44, 4.47, 4.47, 4.02, 4.02, 4.02, 4.02, 4.02, 4.02, 3.58, 3.58, 3.58, 3.58, 3.58, 3.53, 3.98, 3.98, 3.98, 3.98, 4.43, 4.44, 4.44, 4.77, 4.77, 4.77, 4.77, 4.77, 4.77, 4.19, 4.11, 4.19, 4.6, 4.6, 4.6, 4.6, 4.11, 4.11, 4.11, 4.11, 4.6, 4.6, 4.6, 4.6, 4.19, 4.3, 3.82, 3.58, 2.24, 1.79, 1.79, 1.34, 0.95, 0.0, 0.6, 1.26, 1.34, 1.26, 3.6, 6.7, 7.67, 6.95, 9.23, 16.63, 21.41, 20.68, 17.33, 12.88, 8.76, 8.58, 8.65, 7.02, 7.02, 7.06, 6.7, 6.06, 6.08, 5.72, 5.72, 5.72, 4.9, 4.9, 5.09, 5.09, 5.09, 5.09, 5.09, 5.09, 4.66, 4.6, 4.6, 4.6, 4.77, 4.77, 4.77, 4.77, 4.88, 4.88, 4.44, 4.44, 4.47, 4.02, 4.02, 4.02, 4.02, 4.02, 4.02, 3.58, 3.58, 3.58, 3.58, 3.58, 3.53, 3.53, 3.98, 3.98, 3.98, 3.98, 3.98, 4.43, 4.44, 4.34, 4.77, 4.77, 4.77, 4.6, 4.6, 4.19, 4.11, 4.11, 4.6, 4.6, 4.6, 4.52, 4.11, 4.11, 4.11, 4.11, 4.6, 4.6, 4.6, 4.6, 4.11, 4.11, 3.39, 3.2, 2.24, 1.79, 1.79, 1.34, 0.89, 0.0, 0.0, 0.63, 0.89, 1.6, 1.86, 3.79, 4.56, 5.59, 8.06, 13.35, 17.59, 19.04, 21.19, 19.01, 12.96, 6.96, 6.64, 6.98, 6.32, 5.37, 4.74, 3.72, 3.48, 3.49, 3.49, 3.49, 4.9, 4.9, 5.09, 5.09, 5.09, 5.09, 5.09, 5.09, 4.66, 4.6, 4.6, 4.77, 4.77, 4.77, 4.77, 4.77, 4.88, 4.88, 4.44, 4.44, 4.47, 4.02, 4.02, 4.02, 4.02, 4.02, 4.02, 3.58, 3.58, 3.58, 3.58, 3.53, 3.53, 3.53, 3.53, 3.98, 3.98, 3.98, 3.98, 4.43, 4.34, 4.34, 4.77, 4.77, 4.6, 4.6, 4.6, 4.52, 4.52, 4.52, 4.52, 4.52, 4.52, 4.52, 4.11, 4.11, 4.11, 4.11, 4.27, 4.4, 4.4, 4.27, 3.88, 3.88, 3.6, 2.6, 1.26, 0.0, 0.89, 0.89, 1.34, 0.45, 0.0, 0.0, 0.0, 0.63, 1.24, 0.7, 2.11, 4.36, 6.7, 9.27, 12.27, 16.34, 20.27, 20.85, 7.12, 2.0, 2.88, 5.38, 5.06, 2.79, 1.88, 1.2, 0.71, 0.0, 0.0, 0.0, 4.9, 5.09, 5.09, 5.09, 5.09, 5.09, 5.09, 5.09, 4.66, 4.6, 4.77, 4.77, 4.77, 4.77, 4.77, 4.77, 4.88, 4.88, 4.44, 4.44, 4.47, 4.02, 4.02, 4.02, 4.02, 4.02, 4.02, 3.58, 3.58, 3.58, 3.53, 3.53, 3.53, 3.53, 3.53, 3.98, 3.98, 3.98, 3.98, 4.43, 4.3, 4.34, 4.77, 4.6, 4.6, 4.6, 4.6, 4.52, 4.52, 4.52, 4.27, 4.27, 4.27, 4.27, 3.88, 3.88, 3.88, 3.88, 4.27, 4.27, 4.4, 4.0, 4.0, 3.72, 3.35, 2.98, 1.0, 0.0, 0.0, 0.0, 0.45, 0.45, 0.63, 0.0, 0.0, 0.0, -0.0, -0.0, 0.65, 2.79, 5.09, 6.08, 7.69, 13.23, 19.8, 17.75, 9.36, 0.65, 0.0, 2.23, 4.66, 2.53, 0.57, -0.63, -0.89, -1.34, -1.34, -1.34, 5.09, 5.09, 5.09, 5.09, 5.09, 5.09, 5.09, 5.09, 4.66, 4.77, 4.77, 4.77, 4.77, 4.77, 4.77, 4.77, 4.88, 4.44, 4.44, 4.47, 4.47, 4.47, 4.02, 4.02, 4.02, 4.02, 3.58, 3.58, 3.58, 3.53, 3.53, 3.53, 3.53, 3.53, 3.53, 3.53, 3.98, 3.98, 3.98, 4.3, 4.3, 4.34, 4.77, 4.6, 4.6, 4.6, 4.6, 4.52, 4.27, 4.27, 4.27, 4.27, 4.27, 4.27, 4.27, 3.88, 3.88, 3.88, 4.27, 4.0, 4.37, 4.37, 4.0, 3.78, 3.16, 2.53, 0.99, 0.0, -0.87, -0.85, -0.6, 0.0, 1.2, 1.2, 0.0, 0.0, -0.0, -0.0, 0.57, 1.9, 3.22, 4.46, 6.0, 11.52, 21.9, 19.22, 11.18, 0.6, -2.53, 0.0, 3.32, 2.68, 0.0, -1.2, -1.34, -1.34, -1.34, -1.34, 5.09, 5.09, 5.09, 5.09, 5.09, 5.09, 5.09, 5.09, 4.8, 4.77, 4.77, 4.77, 4.77, 4.77, 4.77, 4.88, 4.88, 4.44, 4.44, 4.47, 4.47, 4.47, 4.02, 4.02, 4.02, 4.02, 3.58, 3.58, 3.58, 3.53, 3.53, 3.53, 3.53, 3.53, 3.53, 3.53, 3.98, 3.98, 3.98, 4.3, 4.3, 4.34, 4.6, 4.6, 4.6, 4.6, 4.4, 4.27, 4.27, 4.27, 4.27, 4.27, 4.27, 4.27, 4.27, 4.27, 4.0, 3.78, 4.0, 4.0, 4.37, 4.07, 4.07, 3.48, 3.15, 2.23, 1.6, 0.0, -0.65, -1.4, -1.4, -0.65, 0.54, 1.24, 0.6, 0.0, -0.0, -0.0, 0.95, 1.7, 1.86, 3.22, 6.07, 19.21, 21.89, 20.1, 13.41, 1.79, -1.86, 0.0, 3.07, 2.68, 0.0, -1.86, -1.79, -1.79, -1.79, -1.79, 5.09, 5.09, 5.09, 5.09, 5.09, 5.09, 5.09, 4.8, 4.8, 4.77, 4.77, 4.77, 4.77, 4.77, 4.77, 4.88, 4.88, 4.44, 4.44, 4.47, 4.47, 4.47, 4.02, 4.02, 4.02, 4.02, 3.58, 3.58, 3.53, 3.53, 3.53, 3.53, 3.53, 3.53, 3.53, 3.53, 3.98, 3.98, 3.87, 4.3, 4.34, 4.6, 4.6, 4.6, 4.6, 4.4, 4.27, 4.27, 4.27, 4.27, 4.27, 4.27, 4.27, 4.0, 4.0, 4.0, 4.0, 3.78, 3.78, 3.73, 4.07, 4.07, 4.07, 3.79, 3.2, 2.86, 1.8, 1.27, 0.0, -1.16, -1.33, -0.7, 0.0, 0.0, 0.0, 0.0, -0.45, 0.0, 1.34, 1.79, 1.79, 2.17, 11.6, 18.78, 21.44, 19.67, 12.52, 2.24, -1.2, 0.0, 2.5, 2.5, 0.0, -1.9, -2.0, -2.6, -2.6, -2.6, 5.09, 5.09, 5.09, 5.09, 5.09, 5.09, 5.24, 4.8, 4.8, 4.77, 4.77, 4.77, 4.77, 4.77, 4.88, 4.88, 4.88, 4.44, 4.44, 4.47, 4.47, 4.47, 4.02, 4.02, 4.02, 4.02, 3.58, 3.58, 3.53, 3.53, 3.53, 3.53, 3.53, 3.53, 3.53, 3.53, 3.97, 3.87, 3.87, 4.3, 4.11, 4.6, 4.6, 4.6, 4.4, 4.4, 4.27, 4.27, 4.27, 4.27, 4.27, 4.27, 4.0, 4.0, 4.0, 4.0, 4.0, 3.78, 3.48, 4.07, 4.07, 4.11, 3.79, 3.49, 3.49, 3.12, 2.44, 1.76, 0.65, 0.0, 0.0, -0.65, -0.61, 0.0, 0.0, -0.54, -0.57, 0.0, 1.24, 1.49, 1.2, 1.79, 9.83, 16.02, 19.97, 17.36, 4.87, -1.27, -1.86, 0.0, 1.88, 0.6, -1.6, -2.4, -2.4, -3.07, -3.07, -3.07, 5.09, 5.09, 5.09, 5.09, 5.09, 4.8, 4.8, 4.8, 4.8, 4.77, 4.77, 4.77, 4.77, 4.77, 4.88, 4.88, 4.88, 4.44, 4.47, 4.47, 4.47, 4.47, 4.02, 4.02, 4.02, 4.02, 3.58, 3.58, 3.53, 3.53, 3.53, 3.53, 3.53, 3.53, 3.53, 3.53, 3.82, 3.87, 3.87, 4.3, 4.11, 4.6, 4.6, 4.4, 4.4, 4.4, 4.27, 4.27, 4.27, 4.27, 4.27, 4.0, 4.0, 4.0, 4.0, 4.0, 3.78, 3.48, 3.48, 4.07, 3.79, 4.11, 4.11, 3.49, 3.49, 3.49, 2.84, 1.73, 1.76, 1.0, 0.6, 0.0, -0.54, -0.65, -0.54, 0.0, 0.0, 0.0, 0.61, 1.2, 0.71, 2.8, 6.98, 12.52, 17.81, 16.92, 2.4, -3.97, -2.63, -1.24, -1.24, -2.24, -2.24, -2.17, -2.6, -3.51, -3.51, -3.51, 5.09, 5.09, 5.09, 4.66, 4.66, 4.8, 4.8, 4.8, 4.77, 4.77, 4.77, 4.77, 4.77, 4.88, 4.88, 4.88, 4.44, 4.44, 4.47, 4.47, 4.47, 4.47, 4.02, 4.02, 4.02, 4.02, 3.58, 3.53, 3.53, 3.53, 3.53, 3.53, 3.53, 3.53, 3.39, 3.39, 3.82, 3.87, 3.87, 4.11, 4.11, 4.6, 4.6, 4.4, 4.4, 4.27, 4.27, 4.27, 4.27, 4.27, 4.0, 4.0, 4.0, 4.0, 4.0, 3.73, 3.48, 3.48, 3.79, 3.79, 4.11, 4.11, 3.83, 3.49, 3.49, 3.49, 3.49, 2.4, 1.73, 1.8, 0.8, 0.6, 0.0, -1.2, -1.2, 0.0, 0.0, 0.0, 0.7, 0.61, 0.76, 2.41, 5.09, 9.83, 15.18, 17.43, 4.47, -3.07, -3.82, -3.13, -3.58, -3.58, -2.68, -2.24, -2.63, -3.51, -3.51, -3.51, 5.02, 5.02, 4.6, 4.6, 4.77, 4.8, 4.8, 4.77, 4.77, 4.77, 4.77, 4.77, 4.88, 4.88, 4.88, 4.44, 4.44, 4.44, 4.47, 4.47, 4.47, 4.47, 4.02, 4.02, 4.02, 4.02, 3.58, 3.53, 3.53, 3.53, 3.53, 3.53, 3.53, 3.39, 3.39, 3.39, 3.82, 3.87, 3.7, 4.11, 4.11, 4.52, 4.4, 4.4, 4.27, 4.27, 4.27, 4.27, 4.27, 4.0, 4.0, 4.0, 4.0, 4.07, 4.07, 4.07, 3.48, 3.79, 3.49, 3.79, 4.11, 4.12, 4.12, 3.76, 3.47, 3.22, 3.49, 3.08, 2.4, 1.66, 0.76, 0.54, 0.0, -1.4, -1.16, -0.53, 0.0, 0.0, 0.0, 0.0, 0.0, 1.49, 4.43, 8.63, 13.29, 17.27, 12.49, 0.45, -3.82, -3.82, -3.97, -4.47, -3.13, -2.24, -2.68, -3.13, -3.13, -3.13, 5.02, 5.02, 4.6, 4.6, 4.77, 4.77, 4.77, 4.77, 4.77, 4.77, 4.77, 4.88, 4.88, 4.88, 4.44, 4.44, 4.44, 4.47, 4.47, 4.47, 4.47, 4.47, 4.02, 4.02, 4.02, 4.02, 3.98, 3.53, 3.53, 3.53, 3.53, 3.53, 3.39, 3.39, 3.39, 3.82, 3.82, 3.87, 4.11, 4.11, 4.11, 4.52, 4.27, 4.27, 4.27, 4.27, 4.27, 4.27, 4.0, 4.0, 4.0, 4.0, 4.37, 4.07, 4.07, 4.07, 3.79, 3.49, 3.49, 4.11, 3.83, 4.12, 4.12, 3.47, 3.47, 3.47, 3.47, 3.49, 2.84, 2.2, 1.76, 0.61, 0.0, -0.65, -1.16, -0.61, 0.0, 0.0, 0.0, 0.0, 0.0, 1.49, 4.43, 8.3, 12.29, 16.05, 15.93, 7.94, 0.45, -3.07, -3.53, -4.02, -3.58, -3.13, -2.68, -2.68, -2.68, -2.68, 4.6, 4.6, 4.6, 4.77, 4.77, 4.77, 4.77, 4.77, 4.77, 4.77, 4.88, 4.88, 4.88, 4.44, 4.44, 4.44, 4.44, 4.47, 4.47, 4.47, 4.47, 4.47, 4.02, 4.02, 4.02, 4.02, 3.98, 3.53, 3.53, 3.53, 3.53, 3.39, 3.39, 3.39, 3.39, 3.82, 3.82, 3.6, 3.7, 4.11, 4.11, 4.27, 4.27, 4.27, 4.27, 4.27, 4.27, 4.0, 4.0, 4.0, 4.0, 3.73, 4.07, 4.07, 4.07, 3.79, 3.49, 3.49, 3.78, 3.83, 4.12, 4.12, 3.84, 3.47, 3.47, 3.04, 3.47, 3.49, 3.49, 2.84, 2.44, 1.4, 0.65, 0.0, 0.0, -0.54, -0.53, 0.0, 0.0, 0.0, 0.0, 1.55, 4.36, 8.06, 11.88, 14.92, 15.78, 13.77, 6.58, 0.45, -2.68, -3.13, -3.13, -2.68, -2.24, -1.79, -1.79, -1.79, 4.6, 4.6, 4.77, 4.77, 4.77, 4.77, 4.77, 4.77, 4.77, 4.88, 4.88, 4.88, 4.44, 4.44, 4.44, 4.44, 4.47, 4.47, 4.47, 4.47, 4.47, 4.47, 4.02, 4.02, 4.02, 3.98, 3.98, 3.53, 3.53, 3.53, 3.39, 3.39, 3.39, 3.39, 3.39, 3.2, 3.6, 3.6, 3.7, 4.11, 4.11, 3.88, 4.27, 4.27, 4.27, 4.27, 4.0, 4.0, 4.0, 4.0, 4.07, 4.07, 4.07, 4.07, 3.79, 3.49, 3.49, 3.49, 3.49, 3.83, 4.12, 3.84, 4.12, 3.47, 3.47, 3.04, 3.04, 3.22, 3.49, 2.84, 2.4, 2.2, 2.0, 1.58, 0.45, 0.0, -0.65, -0.71, 0.0, 0.0, 0.7, 2.11, 4.36, 7.41, 10.8, 13.78, 14.57, 14.22, 12.49, 7.56, 2.12, 0.0, -0.89, -0.89, -0.45, 0.0, 0.0, 0.0, 4.6, 4.6, 4.77, 4.77, 4.77, 4.77, 4.77, 4.77, 4.77, 4.88, 4.88, 4.88, 4.44, 4.44, 4.44, 4.44, 4.47, 4.47, 4.47, 4.47, 4.47, 4.47, 4.02, 4.02, 4.02, 3.98, 3.98, 3.53, 3.53, 3.53, 3.39, 3.39, 3.39, 3.39, 3.39, 3.2, 3.6, 3.6, 3.7, 4.11, 4.11, 3.88, 4.27, 4.27, 4.27, 4.27, 4.0, 4.0, 4.0, 4.0, 4.07, 4.07, 4.07, 4.07, 3.79, 3.49, 3.49, 3.49, 3.49, 3.83, 4.12, 3.84, 4.12, 3.47, 3.47, 3.04, 3.04, 3.22, 3.49, 2.84, 2.4, 2.2, 2.0, 1.58, 0.45, 0.0, -0.54, -0.71, 0.0, 0.0, 0.7, 2.2, 3.9, 7.06, 9.84, 12.37, 13.53, 13.77, 12.94, 11.62, 8.05, 3.58, 2.24, 1.79, 1.7, 2.17, 2.17, 2.17]}, {"header": {"dx": 0.06612293990616946, "dy": 0.0552356325346848, "nx": 98, "ny": 59, "la1": 35.046912555036876, "la2": 31.78801023549047, "lo1": -121.43107172385933, "lo2": -114.95102361305473, "refTime": "2026041010", "parameterCategory": 1, "parameterNumber": 3}, "data": [2.68, 2.68, 2.68, 2.68, 3.13, 3.07, 3.07, 3.07, 2.6, 2.17, 1.7, 1.6, 1.26, 1.26, 1.26, 0.95, -0.0, -0.0, -0.0, 0.63, 1.34, 2.54, 2.5, 2.5, 2.15, 2.15, 2.07, 2.07, 2.53, 2.5, 2.17, 0.63, -0.0, -0.0, -0.0, -0.0, 0.0, 0.0, 0.0, 0.0, -0.0, -0.45, -0.95, -1.49, -2.76, -3.69, -4.5, -5.18, -3.88, -0.72, 2.4, 4.74, 5.0, 5.3, 5.3, 5.3, 5.59, 5.21, 4.71, 4.71, 3.91, 3.69, 4.03, 3.9, 3.79, 4.43, 4.56, 4.6, 4.6, 4.65, 4.71, 3.73, 3.16, 2.31, 2.26, 2.26, 1.27, 0.0, -1.26, -1.24, -1.88, -2.5, -2.5, -2.8, -3.95, -4.02, -3.47, -2.86, -2.98, -4.0, -5.3, -5.99, -6.77, -7.12, -6.87, -6.09, -5.18, -4.83, 2.68, 2.68, 2.68, 2.68, 2.68, 2.63, 2.6, 2.6, 2.6, 2.12, 1.79, 1.79, 1.26, 0.95, 1.79, -0.0, -0.0, -0.0, -0.0, 0.6, 1.34, 1.79, 2.8, 2.53, 2.53, 2.15, 2.15, 1.88, 1.9, 2.4, 2.63, 1.79, 0.63, -0.0, -0.0, -0.0, 0.0, 0.0, 0.0, 0.0, -0.89, -1.34, -2.23, -4.19, -5.37, -6.24, -6.05, -3.91, 0.0, 2.2, 4.36, 4.56, 4.83, 4.67, 4.71, 5.37, 5.3, 5.21, 4.96, 4.6, 3.8, 3.91, 3.79, 4.01, 4.46, 4.74, 5.59, 5.38, 5.41, 4.48, 4.71, 3.96, 3.02, 2.23, 1.55, 2.31, 1.49, 0.0, -1.26, -1.24, -1.88, -2.5, -2.5, -2.8, -3.95, -4.02, -3.47, -2.86, -2.98, -4.0, -5.3, -5.99, -6.77, -7.12, -6.87, -6.09, -5.18, -4.83, 2.68, 2.68, 2.68, 2.68, 2.68, 2.6, 2.17, 2.17, 2.17, 2.24, 1.79, 1.34, 1.34, -0.0, -0.0, 0.95, -0.0, -0.0, -0.0, -0.0, 0.6, 0.63, 1.34, 2.23, 2.53, 2.84, 2.53, 1.88, 1.24, 1.79, 3.13, 3.13, 2.6, 1.2, 0.63, 0.0, 0.0, 0.0, 0.0, 0.0, -1.79, -3.51, -5.05, -6.7, -7.06, -6.01, -2.88, 0.0, 3.07, 3.9, 3.79, 3.79, 3.79, 4.16, 4.07, 4.65, 4.56, 4.71, 4.37, 3.8, 3.8, 3.69, 3.9, 4.81, 5.09, 6.08, 6.32, 6.42, 6.2, 5.6, 5.38, 3.87, 2.34, 1.52, 0.72, 0.76, 0.78, 0.0, -0.99, -1.84, -2.15, -2.53, -2.86, -3.45, -3.82, -3.97, -3.97, -3.74, -4.74, -5.95, -6.9, -7.69, -8.29, -8.37, -7.73, -6.31, -4.6, -3.91, 2.24, 2.24, 2.24, 2.24, 2.24, 2.24, 2.17, 2.12, 1.7, 1.79, 1.79, 1.34, 0.89, -0.0, -0.0, -0.0, -0.0, -0.0, -0.0, -0.0, -0.0, -0.0, 0.89, 1.34, 2.4, 3.58, 3.49, 2.53, 1.9, 2.24, 2.68, 3.13, 3.13, 3.2, 2.15, 0.76, 0.0, 0.0, -1.26, -1.86, -2.91, -5.34, -6.0, -5.09, -3.79, -1.33, 0.61, 2.98, 3.64, 3.9, 3.32, 3.33, 3.11, 4.01, 4.43, 4.65, 4.83, 4.71, 3.8, 3.8, 2.99, 3.55, 4.46, 5.05, 6.07, 7.07, 7.35, 7.59, 7.8, 7.11, 6.09, 4.76, 3.11, 0.69, 0.0, -1.41, -0.8, 0.0, -1.26, -2.73, -2.73, -2.53, -2.86, -3.45, -3.49, -2.8, -2.68, -4.8, -6.68, -8.66, -8.61, -8.84, -8.66, -7.82, -3.79, -1.55, -1.52, -2.26, 2.24, 2.24, 2.24, 2.24, 2.24, 2.24, 1.79, 1.79, 1.7, 1.2, 1.34, 0.89, 0.89, 0.0, -0.0, -0.0, -0.0, 0.0, -0.45, -0.0, -0.0, 0.0, 0.89, 1.34, 2.17, 2.8, 3.58, 3.79, 2.53, 2.5, 2.24, 2.17, 2.24, 1.86, 1.6, 0.79, 0.79, 0.0, -1.84, -2.86, -2.53, -2.53, -1.33, -0.7, 0.0, 2.07, 3.72, 3.64, 3.64, 3.9, 3.22, 3.22, 2.98, 3.72, 4.36, 4.83, 4.46, 3.8, 3.7, 3.7, 3.09, 3.79, 5.34, 6.0, 7.6, 8.05, 7.69, 7.64, 8.53, 7.79, 7.11, 5.41, 4.17, 2.34, 0.0, -2.0, -2.79, -1.16, -1.79, -3.43, -3.38, -2.84, -2.86, -3.84, -3.72, -3.83, -4.87, -7.44, -9.23, -10.04, -9.31, -8.29, -6.88, -1.2, 1.26, 0.65, -0.74, -2.31, 1.79, 1.79, 1.79, 1.79, 1.79, 1.79, 1.79, 1.34, 1.34, 1.34, 0.89, 0.0, 0.0, 0.0, -0.0, -0.0, -0.95, -0.89, -0.8, -0.89, -0.63, 0.0, 0.0, 0.63, 1.26, 1.58, 2.21, 2.15, 2.41, 2.53, 2.5, 2.17, 1.34, 0.6, 0.0, 0.0, 0.0, 0.0, -0.66, -1.86, -1.7, 0.0, 0.61, 1.27, 2.2, 4.01, 4.74, 4.36, 3.64, 2.98, 2.79, 3.07, 3.43, 3.72, 3.64, 3.69, 3.09, 3.27, 3.06, 2.97, 2.88, 3.74, 6.07, 6.94, 7.6, 7.69, 7.41, 7.02, 6.88, 6.77, 6.09, 5.67, 6.07, 4.58, 2.22, -0.7, -2.91, -2.68, -2.24, -2.53, -4.43, -5.05, -4.93, -4.84, -5.69, -7.56, -9.08, -9.9, -10.81, -10.12, -9.48, -7.18, -1.24, 2.17, 2.24, 0.0, -2.23, -3.61, 1.79, 1.79, 1.79, 1.79, 1.79, 1.79, 1.34, 1.34, 1.34, 0.89, 0.0, 0.0, 0.0, 0.0, -0.0, -0.0, -1.34, -1.34, -1.49, -1.6, -0.89, -1.34, -1.34, -1.2, 0.0, 0.0, 0.0, 0.65, 0.65, 2.21, 3.2, 2.68, 2.23, 0.71, 0.0, 0.0, 0.0, 0.0, 0.0, 0.0, -0.0, -0.0, 0.0, 1.49, 2.53, 4.46, 6.08, 6.06, 4.74, 4.47, 4.19, 2.79, 3.22, 2.88, 2.29, 1.41, 1.52, 1.52, 1.44, 1.49, 1.88, 4.02, 5.16, 6.0, 6.4, 6.44, 6.39, 4.65, 3.91, 3.85, 3.87, 3.78, 3.53, 3.9, 3.16, 1.52, -1.24, -2.17, -2.68, -3.82, -5.86, -7.71, -7.71, -7.21, -8.46, -10.63, -11.83, -11.9, -10.86, -9.23, -6.98, -1.86, 2.12, 2.6, 0.6, -1.41, -3.78, -4.6, 1.34, 1.79, 1.79, 1.79, 1.34, 1.34, 1.34, 1.34, 0.89, 0.89, 0.0, 0.0, 0.0, 0.0, 0.0, -0.0, -0.89, -0.63, -1.26, -0.57, 0.0, 0.0, -1.2, -2.17, -2.0, -1.58, -1.58, -0.6, 0.0, 1.6, 1.9, 1.49, 1.49, 0.76, 0.0, -0.59, -1.13, 0.0, 0.0, 0.0, -0.0, -0.0, -0.0, 0.0, 1.79, 3.9, 6.4, 6.7, 6.01, 5.15, 2.15, 2.07, 3.22, 2.29, 1.47, 0.7, 0.0, 0.0, 0.0, 0.0, 1.86, 2.68, 3.07, 4.8, 4.19, 3.72, 3.0, 1.41, 0.0, 0.78, 0.77, 0.75, 0.0, 0.0, 0.75, 1.41, 0.79, 0.0, -1.88, -5.09, -5.44, -8.82, -8.84, -8.91, -9.81, -11.09, -11.3, -10.9, -9.56, -6.68, -1.26, 1.7, 2.6, 1.34, -0.54, -3.0, -4.71, -5.52, 1.34, 1.34, 1.34, 1.34, 1.34, 1.34, 1.34, 0.89, 0.89, 0.63, 0.0, 0.0, 0.0, 0.0, -0.89, -1.34, -1.79, -1.6, -1.2, -0.6, 0.0, 0.0, 0.0, -1.58, -2.4, -2.23, -2.12, -0.89, 0.0, 0.0, 0.0, 0.0, 0.0, 0.0, 0.0, 0.0, -1.6, -1.8, -0.7, 0.0, -0.0, -0.0, -0.0, -0.0, 0.95, 2.24, 3.04, 5.59, 6.32, 6.01, 5.44, 3.07, 2.98, 2.29, 1.47, 0.0, 0.0, -0.72, -0.76, 0.0, 2.12, 3.04, 3.04, 3.22, 2.41, 2.4, 1.63, 0.0, -2.35, -2.23, -0.79, -0.68, -0.76, -0.72, 0.0, 0.0, 0.0, 0.0, -0.75, -2.83, -3.79, -6.22, -8.46, -9.39, -9.28, -9.68, -9.7, -8.6, -7.27, -2.79, 0.6, 1.7, 1.2, 0.0, -1.4, -3.91, -5.28, -5.38, 1.34, 1.34, 1.34, 1.34, 1.34, 1.34, 1.34, 0.89, 0.63, 0.0, 0.0, 0.0, 0.0, 0.0, -0.95, -2.24, -2.68, -3.13, -2.68, -2.68, -2.24, -2.12, -1.58, -1.9, -2.8, -2.8, -2.12, -1.34, -1.34, -1.24, -1.4, -1.24, 0.0, 0.0, 0.0, 0.0, -0.79, -1.27, 0.0, 0.0, -0.95, -0.57, -0.0, -0.0, 0.89, 1.79, 2.6, 2.5, 4.46, 6.06, 6.39, 6.01, 5.0, 3.55, 2.29, 1.47, 0.0, -0.66, -1.4, 0.57, 4.24, 6.51, 7.31, 4.46, 3.79, 2.98, 2.26, 0.0, -2.8, -4.46, -3.88, -3.53, -2.76, -2.14, -1.33, -1.39, -2.28, -2.28, -2.06, -1.43, -2.89, -3.14, -4.92, -7.15, -7.48, -7.14, -7.85, -6.98, -4.71, -1.88, 0.0, 0.0, -0.54, -1.2, -2.53, -4.71, -5.64, -5.49, 1.34, 1.34, 1.34, 1.34, 1.34, 1.34, 0.89, 0.63, 0.63, 0.0, 0.0, 0.0, 0.0, 0.0, 0.0, -1.58, -1.6, -3.82, -5.24, -5.7, -3.58, -3.07, -2.91, -2.8, -4.24, -2.12, -2.12, -1.2, -1.2, -1.49, -1.49, -0.6, 0.0, 0.0, -1.2, -0.76, 0.0, 0.0, 0.0, 0.0, -0.89, 0.0, 0.0, 0.0, 2.4, 2.6, 3.07, 3.32, 3.45, 5.05, 8.0, 8.67, 8.3, 7.96, 7.68, 7.02, 6.24, 1.33, -0.95, 2.24, 8.49, 9.54, 7.47, 6.54, 7.6, 8.06, 6.95, 4.03, 0.0, -2.73, -3.69, -3.61, -3.53, -3.37, -3.53, -3.31, -4.0, -4.71, -4.71, -3.96, -2.82, -2.8, -2.4, -3.07, -3.82, -4.73, -5.86, -5.72, -4.11, -2.21, -2.53, -2.79, -2.79, -2.84, -3.9, -5.64, -5.64, -3.79, 0.89, 1.34, 1.34, 1.34, 1.34, 1.34, 0.89, 0.63, 0.63, 0.0, 0.0, 0.0, 0.0, 0.0, 0.0, -0.53, -1.2, -2.23, -2.86, -3.48, -2.86, -1.6, -1.16, -1.13, 0.0, 0.0, 0.0, 0.0, 0.0, 0.0, 0.0, 0.0, 0.0, 0.0, -0.63, -0.6, 0.0, 0.89, -0.0, 0.0, 0.0, 0.89, 1.26, 2.8, 4.02, 3.58, 4.92, 5.81, 6.17, 6.64, 6.98, 8.55, 9.84, 10.8, 10.8, 10.87, 11.53, 8.53, 1.61, 3.82, 10.25, 10.49, 8.91, 8.36, 11.06, 12.37, 13.04, 11.5, 7.68, 3.64, 1.98, 1.44, 0.0, -1.52, -3.55, -4.71, -4.56, -4.36, -5.64, -4.8, -2.4, -0.59, -1.9, -2.23, -1.9, -2.86, -5.05, -4.66, -3.07, -2.5, -4.09, -4.73, -5.09, -4.43, -5.21, -5.95, -4.83, -1.26, 0.89, 0.95, 1.2, 1.34, 1.34, 1.34, 0.63, 0.63, 0.95, 0.0, 0.0, 0.0, 0.0, 0.0, 0.0, 0.0, -0.59, -1.13, -1.23, -1.16, -1.14, 0.0, 0.59, 1.18, 1.18, 1.09, 1.16, 1.71, 1.76, 0.55, 0.0, 0.0, 0.0, 0.0, 0.0, 0.45, 0.63, 0.8, -0.0, -0.0, 0.89, 1.34, 1.79, 1.79, 2.68, 3.04, 3.04, 3.04, 3.58, 3.58, 3.58, 3.97, 3.82, 4.3, 5.4, 6.0, 8.72, 11.06, 4.5, 4.02, 9.54, 10.16, 9.72, 10.28, 11.62, 12.05, 13.4, 13.89, 12.47, 11.18, 10.52, 9.4, 6.87, 2.9, 0.0, -2.07, -1.88, -1.9, -2.53, -1.88, -1.24, -0.61, -1.84, -2.5, -1.9, -2.15, -3.48, -2.5, -1.9, -1.61, -2.53, -3.72, -4.66, -6.08, -6.88, -6.71, -2.88, 0.0, 0.63, 0.95, 0.95, 1.2, 0.95, 0.95, 0.63, 0.63, 0.6, 0.0, 0.0, 0.0, 0.0, 0.0, 0.0, 0.0, -0.59, -0.57, -1.08, -1.16, -0.57, 0.0, 0.0, 0.57, 0.56, 1.12, 1.12, 1.18, 1.2, 0.56, 0.0, 0.0, 0.0, -1.26, 0.0, 0.89, 1.34, 1.34, 0.89, 0.45, 0.0, 0.45, 0.89, 3.13, 4.47, 4.34, 2.12, 1.6, 1.6, 1.7, 1.79, 0.89, 0.0, 0.0, 0.0, 0.0, 1.34, 4.6, 5.5, 4.66, 7.89, 8.94, 9.83, 10.23, 9.26, 9.26, 9.39, 9.58, 10.4, 9.3, 10.52, 10.04, 7.69, 5.2, 2.18, 0.7, 1.26, 0.8, 0.0, -0.71, -2.23, -2.84, -2.66, -3.79, -2.8, -2.79, -2.3, -1.2, -0.65, -0.61, -1.49, -1.88, -4.46, -6.08, -6.95, -6.42, -2.2, -0.57, 0.63, 0.95, 0.95, 0.95, 0.95, 0.95, 0.95, 0.95, 0.6, 0.0, 0.0, 0.0, 0.0, 0.0, -0.53, -0.61, -0.59, -0.57, -0.55, -0.59, -0.58, -0.56, 0.0, 0.0, 0.0, 0.56, 0.56, 1.18, 1.12, 0.57, 0.0, -0.61, -1.27, -1.2, 0.0, 0.0, 1.58, 2.0, 1.58, 0.0, 0.0, 0.0, 0.0, 2.24, 3.13, 3.39, 3.39, 2.8, 1.9, 0.95, 0.45, 0.0, -0.45, 0.0, 0.0, -0.95, -1.6, -1.3, 2.1, 6.18, 5.16, 4.4, 4.4, 3.6, 4.0, 4.0, 3.2, 3.58, 5.4, 6.52, 6.88, 6.87, 4.65, 2.31, 0.74, 2.79, 4.46, 4.43, 2.4, 0.0, -1.9, -4.22, -4.11, -4.46, -5.05, -3.84, -2.15, -1.2, -0.65, -1.49, -1.55, -2.07, -3.49, -4.46, -5.69, -2.73, -1.4, -1.4, 0.6, 0.6, 0.6, 0.6, 0.6, 0.95, 0.95, 0.6, 0.6, 0.0, 0.0, 0.0, 0.0, 0.0, -0.53, -0.61, -0.59, -0.57, -0.55, -0.54, -0.58, 0.0, 0.0, 0.0, 0.0, 0.0, 0.0, 0.0, 0.56, 0.0, 0.0, -0.62, -1.08, -1.27, 0.0, 0.0, 1.0, 1.26, 1.4, 0.0, 0.0, 0.0, 0.0, 2.24, 2.68, 3.39, 3.82, 3.2, 2.68, 2.24, 0.0, 0.0, 0.0, 0.0, 0.0, 0.0, -1.7, -2.53, 0.0, 3.16, 2.24, 2.8, 2.53, 2.53, 0.8, 0.71, 1.0, 2.6, 5.7, 6.87, 4.5, 1.36, 0.0, -1.5, 0.0, 4.0, 7.67, 7.64, 6.14, 4.46, 1.55, 0.0, -2.15, -3.83, -5.09, -5.16, -3.83, -2.86, -2.84, -3.07, -3.11, -2.53, -2.86, -3.72, -5.0, -3.38, -3.48, -3.48, 0.6, 0.8, 0.8, 0.8, 0.8, 0.6, 0.6, 0.6, 0.8, 0.0, 0.0, 0.0, 0.0, 0.0, -0.53, -0.61, -0.59, -0.57, -0.55, -0.54, -0.53, -0.57, 0.0, 0.0, 0.0, 0.0, 0.0, 0.0, 0.0, 0.0, -0.57, -1.2, -1.7, -1.3, -0.76, 0.0, 0.0, 0.0, 0.0, 0.0, -1.58, 0.0, 0.0, 0.89, 2.68, 3.58, 3.58, 3.13, 3.13, 3.13, 2.24, 2.24, 2.24, 1.9, 1.9, 1.2, 0.0, 0.0, 2.8, 2.8, 2.8, 2.68, 3.13, 2.8, 1.58, -0.0, -0.0, 0.8, 2.12, 3.35, 1.04, -2.76, -4.75, -3.0, 1.24, 6.66, 9.74, 9.9, 8.37, 6.87, 6.2, 4.4, 1.55, -0.61, -2.6, -2.68, -4.24, -4.0, -4.84, -4.74, -3.43, -1.9, -1.9, -4.11, -5.3, -5.06, -4.46, -4.46, 0.57, 0.57, 0.57, 0.57, 0.57, 0.57, 0.8, 0.57, 0.57, 0.0, 0.0, 0.0, 0.0, 0.0, 0.0, -0.51, -0.59, -0.59, -0.57, -0.61, -0.59, -0.58, -0.53, 0.0, 0.59, 0.0, 0.0, 0.0, -0.57, -0.57, -0.58, -1.2, -1.84, -1.73, -1.76, -1.8, -1.74, -1.6, -1.4, -1.58, -1.2, -0.45, 0.0, 0.0, 2.24, 3.13, 3.13, 3.13, 3.13, 3.13, 3.2, 3.2, 3.2, 3.2, 2.8, 1.4, 3.2, 3.2, 3.2, 2.21, 1.4, 1.4, 2.24, 3.39, 4.24, 1.7, 0.63, -1.6, -3.04, -4.2, -3.18, -2.33, -2.35, 0.0, 2.91, 5.64, 7.69, 7.9, 7.01, 6.0, 4.75, 3.91, 2.34, -1.16, -2.24, -3.13, -3.58, -5.16, -5.43, -5.43, -2.84, -2.21, -2.53, -5.09, -6.06, -5.09, -5.09, -5.09, 0.54, 0.54, 0.71, 0.71, 0.71, 0.57, 0.57, 0.57, 0.71, 0.0, 0.0, 0.0, 0.0, 0.0, 0.0, 0.0, -0.51, -0.59, 0.0, 0.0, -0.59, -1.14, -1.07, -0.76, 0.0, 0.0, -0.58, -0.78, -0.78, -0.57, 0.0, -0.58, -1.16, -1.88, -1.88, -2.2, -2.44, -2.86, -1.88, -1.9, -1.49, -0.63, 0.0, 0.0, 2.8, 3.2, 2.8, 2.8, 2.8, 3.2, 3.2, 3.2, 3.2, 3.39, 3.82, 2.84, 2.53, 2.53, 1.27, 1.27, 0.0, 0.0, 2.24, 1.7, 3.22, 3.22, 1.7, -1.34, -5.05, -6.69, -2.13, 1.5, 3.87, 3.87, 3.06, 1.41, 0.0, 0.72, 1.51, 1.53, 0.0, 0.0, -0.76, -1.3, -2.17, -2.68, -3.13, -3.32, -5.75, -4.73, -3.74, -4.46, -5.09, -6.32, -6.08, -5.09, -4.46, -4.46, 0.65, 0.65, 0.65, 0.54, 0.54, 0.54, 0.54, 0.54, 0.0, 0.0, 0.0, 0.0, 0.0, 0.0, 0.0, -0.59, -0.59, -0.51, 0.0, -0.73, -0.76, -1.73, -1.76, -1.7, -2.29, -1.6, -0.82, -0.59, -0.53, 0.0, 0.0, 0.0, 0.0, -0.59, -1.16, -1.7, -1.84, -2.36, -1.7, -1.73, -1.11, -0.59, 0.0, 1.11, 1.8, 2.48, 2.84, 2.53, 2.8, 2.8, 2.8, 3.2, 3.39, 3.82, 3.04, 3.2, 3.48, 1.24, 0.71, 0.0, 0.0, 0.0, 0.0, 3.2, 1.9, 2.21, 1.86, 0.89, 0.0, 0.0, 3.02, 5.51, 6.31, 3.92, 0.0, -3.11, -6.2, -7.73, -3.78, -2.28, -1.57, -1.51, -2.28, -1.6, -1.79, -2.12, -1.34, -0.8, -2.91, -3.07, -5.64, -7.2, -7.67, -7.03, -6.54, -5.82, -4.46, -4.46, 0.61, 0.61, 0.53, 0.53, 0.65, 0.65, 0.54, 0.0, 0.0, 0.0, 0.0, 0.0, 0.0, 0.0, 0.0, -0.59, -0.59, -0.59, -1.27, -1.55, -0.88, -1.23, -1.23, -1.88, -2.16, -1.8, -1.12, -0.57, 0.0, 0.0, 0.57, 0.57, 0.0, 0.0, 0.0, -0.58, -1.14, -1.14, -0.58, -0.58, -0.53, 0.0, 0.0, 0.59, 1.07, 2.4, 2.0, 2.23, 2.21, 1.9, 2.68, 3.13, 3.58, 3.58, 3.82, 3.2, 2.21, 2.53, 1.27, -1.13, -1.4, -1.58, 0.0, 1.6, 0.8, 1.6, 1.58, 1.79, 2.86, 5.43, 7.64, 7.93, 7.22, 3.92, -1.61, -7.93, -13.32, -12.84, -10.04, -7.13, -3.91, -2.28, -0.76, -0.69, -0.8, -0.63, 0.0, 0.0, 0.0, -2.21, -5.75, -7.6, -6.4, -3.82, -3.82, -4.0, -3.45, -3.45, 0.59, 0.51, 0.51, 0.61, 0.61, 0.53, 0.0, 0.0, 0.0, 0.0, 0.0, 0.0, 0.0, 0.0, 0.0, -0.59, -0.59, -1.11, -1.23, -1.19, -0.54, -0.55, -0.55, -1.16, -1.67, -1.12, -1.12, -0.61, 0.0, 0.0, 0.0, 0.56, 0.56, 0.56, 0.0, 0.0, 0.0, 0.0, 0.0, 0.0, 0.0, 0.0, 0.0, 0.53, 0.59, 1.07, 1.3, 1.41, 1.4, 1.9, 2.24, 2.68, 3.13, 3.58, 3.82, 4.24, 3.74, 4.4, 3.72, -1.26, -1.34, -0.63, -0.0, 0.57, 0.8, 1.9, 1.58, 1.7, 2.68, 5.36, 8.24, 10.82, 10.35, 6.11, -7.02, -12.79, -15.31, -15.7, -14.57, -12.07, -8.56, -4.46, -1.51, 0.0, 0.0, -0.57, -0.63, -0.54, -2.04, -2.66, -4.74, -4.66, -2.4, -0.8, -1.2, -2.4, -2.8, -2.8, 0.59, 0.59, 0.59, 0.59, 0.51, 0.61, 0.0, 0.0, 0.0, 0.0, 0.0, 0.0, 0.0, 0.0, 0.0, -0.59, -0.59, -0.57, -1.23, -1.19, -0.54, -0.54, -0.59, -1.16, -1.14, -1.12, -1.12, -0.57, 0.0, 0.0, 0.0, 0.0, 0.0, 0.0, 0.0, 0.0, 0.0, 0.0, 0.0, 0.0, 0.0, 0.0, 0.0, 0.58, 0.53, 1.16, 1.05, 0.0, 0.0, 1.9, 1.58, 2.24, 2.68, 3.13, 3.2, 4.47, 2.68, 3.51, 2.8, 0.63, -1.2, -1.26, -0.0, 0.6, 1.26, 2.23, 2.12, 1.79, 2.24, 2.4, 2.23, 3.39, 3.93, 2.1, -1.79, -8.49, -12.49, -14.79, -15.34, -15.05, -12.05, -8.66, -5.4, -2.95, -1.54, -1.47, -2.15, -3.79, -5.38, -4.46, -4.07, -1.86, 0.0, 0.0, 0.0, -1.58, -2.5, -2.5, 1.11, 1.11, 1.11, 0.57, 0.59, 0.51, 0.0, 0.0, 0.0, 0.0, 0.0, 0.0, 0.0, 0.0, 0.0, -0.59, -0.57, -0.57, -0.63, -1.08, -0.61, -0.54, -0.59, -0.58, -1.14, -1.12, -1.12, -0.57, -0.57, 0.0, 0.0, 0.0, 0.0, 0.0, 0.0, 0.0, 0.0, 0.0, 0.0, 0.0, 0.0, 0.0, 0.0, 0.58, 0.58, 0.59, 0.0, 0.0, 0.0, 1.6, 1.4, 1.9, 1.9, 2.68, 3.13, 3.58, 1.79, 2.24, 2.23, 1.24, -0.89, -2.12, -1.2, 0.63, 1.86, 3.2, 2.68, 4.92, 2.68, 2.12, -0.6, -3.34, -0.79, 2.34, 1.95, -1.34, -7.6, -10.7, -12.3, -13.92, -14.27, -11.42, -8.49, -6.76, -5.41, -4.71, -5.37, -7.06, -5.37, -0.71, -1.24, 0.0, 0.0, 0.0, -0.54, -1.88, -2.53, -2.53, 1.23, 1.23, 1.11, 0.57, 0.57, 0.59, 0.0, 0.0, 0.0, 0.0, 0.0, 0.0, 0.0, 0.0, 0.0, 0.0, -0.57, -0.57, -0.57, -0.55, -0.55, -0.61, -0.54, -0.59, -0.58, -1.12, -0.57, -0.57, -0.57, 0.0, 0.0, 0.0, 0.0, 0.0, 0.0, 0.0, 0.0, 0.0, 0.0, 0.0, 0.0, 0.0, 0.0, 0.0, 0.58, 0.58, 0.58, 0.59, 0.61, 0.55, 0.57, 0.0, 1.4, 1.9, 1.9, 2.68, 2.68, 0.89, 0.0, 0.0, 0.0, -1.86, -1.79, 0.63, 2.54, 2.6, 3.51, 3.58, 3.58, -0.89, -5.09, -5.28, -1.11, 2.3, 4.63, 3.83, 0.0, -3.32, -8.37, -10.95, -13.42, -12.9, -11.09, -9.5, -7.18, -4.83, -4.36, -3.84, -1.2, 1.34, 1.79, 0.89, 0.0, 0.0, -0.53, -1.16, -1.61, -1.61, 1.23, 1.23, 1.23, 0.57, 0.57, 0.57, 0.59, 0.0, 0.0, 0.0, 0.0, 0.0, 0.0, 0.0, 0.0, 0.0, -0.57, -0.57, -0.57, -0.63, -0.55, -0.61, -0.54, -0.59, -0.58, -0.58, -0.58, -0.58, -0.58, -0.58, 0.0, 0.0, 0.0, 0.0, 0.0, 0.0, 0.0, 0.0, 0.0, 0.0, 0.0, 0.0, 0.0, 0.0, 0.0, 0.58, 0.58, 0.58, 1.14, 0.53, 0.59, 0.0, 0.0, 0.0, 1.2, 1.9, 2.24, 0.0, 0.0, -0.6, 0.0, -0.76, -1.24, 0.0, 2.12, 2.6, 3.95, 3.07, 2.24, -0.45, -3.2, -4.46, -1.58, 0.78, 4.7, 8.02, 6.51, -0.68, -7.03, -9.83, -12.56, -13.6, -12.39, -9.84, -6.98, -4.36, -3.11, -1.4, 0.89, 1.34, 0.63, 0.57, -0.54, -1.2, -1.16, -1.16, -1.16, -1.16, 1.08, 1.08, 1.23, 0.57, 0.57, 0.57, 0.51, 0.0, 0.0, 0.0, 0.0, 0.0, 0.0, 0.0, 0.0, 0.0, 0.0, -0.57, -0.57, -0.63, -0.55, -0.55, -0.61, -0.59, -0.59, -0.58, -0.58, -0.58, -0.58, -0.58, 0.0, 0.0, 0.0, 0.0, 0.0, 0.0, 0.0, 0.0, 0.0, 0.0, 0.0, 0.0, 0.0, 0.0, 0.0, 0.0, 0.58, 0.58, 0.58, 0.53, 0.0, 0.0, 0.0, 0.0, 0.0, 0.0, 0.0, 0.0, 0.0, -0.89, -0.8, -0.61, -0.87, 0.0, 3.58, 2.24, 2.68, 1.79, 0.89, 0.0, -2.23, -3.22, -3.15, 0.0, 3.87, 6.24, 6.5, 2.79, -5.3, -9.72, -12.14, -13.33, -12.39, -9.78, -7.59, -6.35, -4.56, -1.4, 0.6, 0.63, 0.0, -1.0, -1.2, -1.88, -1.88, -1.61, -1.84, -1.84, 1.08, 1.08, 1.23, 1.11, 0.57, 0.57, 0.57, 0.0, 0.0, 0.0, 0.0, 0.0, 0.0, 0.0, 0.0, 0.0, 0.0, 0.0, 0.0, -0.57, -0.55, -0.55, -0.61, -0.54, -0.59, -0.59, -0.53, -0.59, -0.59, 0.0, 0.0, 0.0, 0.0, 0.0, 0.0, 0.0, 0.0, 0.0, 0.0, 0.0, 0.0, 0.0, 0.0, 0.0, 0.59, 0.59, 0.0, 0.0, 0.0, 0.0, 0.0, 0.0, 0.0, 0.0, 0.0, 0.0, 0.0, 0.0, 0.0, -0.0, -0.89, -1.2, -0.7, 0.65, 1.7, 3.58, 2.24, 0.89, 0.0, -0.63, -0.71, -2.2, -3.0, -3.11, -1.49, -0.76, 0.0, 1.54, 0.0, -6.26, -10.16, -13.44, -13.02, -10.26, -8.49, -7.59, -5.72, -1.88, -0.65, -0.65, -1.61, -1.88, -1.16, -1.61, -1.88, -1.84, -1.84, -1.84, 1.76, 1.76, 1.23, 1.11, 0.57, 0.57, 0.57, 0.57, 0.0, 0.0, 0.0, 0.0, 0.0, 0.0, 0.0, 0.0, 0.0, 0.0, 0.0, -0.63, -0.55, -0.55, -0.61, -0.54, -0.59, -0.54, -0.54, -0.54, 0.0, 0.0, 0.0, 0.0, 0.0, 0.0, 0.0, 0.0, 0.0, 0.0, 0.0, 0.0, 0.0, 0.0, 0.0, 0.0, 0.81, 0.61, 0.0, -0.54, -0.61, 0.0, 0.0, 0.0, 0.0, -0.57, -0.57, -1.13, -1.13, 0.0, 0.0, -0.0, -0.89, -1.24, -0.65, 0.0, 1.34, 2.68, 3.07, 1.49, 0.0, -0.63, -0.57, -1.52, -2.31, -5.21, -8.53, -9.39, -7.91, -3.87, 0.0, -2.0, -5.81, -12.3, -13.19, -10.83, -7.54, -5.36, -3.49, -2.5, -2.53, -2.51, -2.84, -2.84, -2.51, -1.84, -1.84, -1.84, -1.84, -1.84, 1.76, 1.76, 1.23, 1.11, 0.57, 0.57, 0.57, 0.57, 0.0, 0.0, 0.0, 0.0, 0.0, 0.0, 0.0, 0.0, 0.0, 0.0, 0.0, 0.0, -0.55, -0.55, 0.0, -0.61, -0.54, -0.54, -0.54, 0.0, 0.0, 0.0, 0.0, 0.0, 0.0, 0.0, 0.0, 0.0, 0.0, 0.0, 0.0, 0.0, 0.0, 0.0, 0.0, 0.0, 0.0, 0.0, 0.0, -0.55, -0.57, -0.57, -0.55, -0.55, -0.63, -0.57, -1.11, -1.8, -1.6, -1.16, -1.26, -0.45, -1.34, -1.26, -0.57, 0.0, 2.97, 2.6, 2.68, 2.23, 0.0, -1.24, -2.53, -2.2, -0.75, -2.99, -8.46, -11.53, -10.7, -7.71, -2.99, -0.73, -2.91, -10.6, -12.11, -11.22, -8.93, -4.73, -2.53, -2.5, -3.14, -2.84, -1.88, -1.2, -1.16, -2.07, -1.8, -1.8, -1.27, -1.27, 1.76, 1.76, 1.23, 1.11, 1.11, 0.57, 0.57, 0.57, 0.57, 0.0, 0.0, 0.0, 0.0, 0.0, 0.0, 0.0, 0.0, 0.0, 0.0, 0.0, 0.0, 0.0, 0.0, 0.0, 0.0, 0.0, 0.0, 0.0, 0.0, 0.0, 0.0, 0.0, 0.0, 0.0, 0.0, 0.0, 0.0, 0.0, 0.0, 0.0, 0.0, 0.0, 0.0, 0.0, -0.55, -0.88, -0.82, -0.55, -0.59, -0.57, -0.63, -0.55, -0.63, -0.57, -1.11, -1.8, -2.48, -2.48, -1.84, -1.9, -1.6, -1.26, -0.63, -0.0, 1.86, 2.0, 1.2, 0.0, 0.0, -1.99, -2.86, -1.49, 0.0, 0.0, -2.34, -8.62, -10.87, -9.49, -6.21, -3.07, -2.88, -5.86, -9.42, -9.48, -9.01, -6.92, -5.37, -2.51, -1.88, -1.2, -0.54, 0.0, 0.53, 0.59, -0.66, 0.0, 0.0, 0.0, 1.76, 1.76, 1.23, 1.23, 1.23, 0.57, 0.57, 0.57, 0.57, 0.57, 0.0, 0.0, 0.0, 0.0, 0.0, 0.0, 0.0, 0.0, 0.0, 0.0, 0.0, 0.0, 0.0, 0.0, 0.0, 0.0, 0.0, 0.0, 0.0, 0.0, 0.0, 0.0, 0.0, 0.0, 0.0, 0.0, 0.0, 0.0, 0.0, 0.0, 0.0, 0.0, 0.0, 0.0, -0.59, -1.16, -1.16, -0.55, 0.0, -0.63, -0.55, -0.55, -0.55, -0.55, -0.63, -1.11, -1.76, -2.22, -2.22, -2.23, -2.21, -1.26, -0.63, 0.6, 1.86, 2.12, 0.63, -0.95, -1.6, -2.32, -0.57, 0.0, -0.6, 0.0, 0.0, -3.97, -8.62, -7.82, -7.08, -5.45, -4.17, -2.6, -3.14, -5.65, -6.32, -6.34, -5.71, -4.47, -2.07, -0.61, 0.0, 1.0, 1.4, 1.33, 0.66, 0.7, 1.3, 1.3, 1.76, 1.76, 1.23, 1.23, 1.23, 0.55, 0.63, 0.63, 0.63, 0.57, 0.57, 0.0, 0.0, 0.0, 0.0, 0.0, 0.0, 0.0, 0.0, 0.0, 0.0, 0.0, 0.0, 0.0, 0.0, 0.0, 0.0, 0.0, -0.55, 0.0, 0.0, 0.0, 0.0, 0.0, 0.0, 0.0, 0.0, 0.0, 0.0, 0.0, 0.0, 0.0, 0.0, 0.0, -0.59, -0.59, -0.59, -0.54, -0.61, -0.61, -0.54, -0.54, -0.54, -0.61, -0.61, -1.08, -1.08, -1.76, -1.94, -1.73, -1.76, -0.63, 0.0, 0.89, 1.2, 2.54, 1.34, 0.0, -1.24, -0.85, 1.26, 1.34, -1.34, -3.91, -2.38, -1.64, -3.87, -3.07, -3.32, -4.28, -3.47, -2.06, -1.32, -1.35, -2.92, -3.56, -3.56, -3.6, -1.55, -0.59, 0.0, 1.4, 1.4, 1.33, 1.35, 1.47, 1.3, 1.3, 1.57, 1.57, 1.57, 1.08, 1.08, 1.08, 0.55, 0.55, 0.55, 0.63, 0.57, 0.57, 0.0, 0.0, 0.0, 0.0, 0.0, 0.0, 0.0, 0.0, 0.0, 0.0, 0.0, 0.0, 0.0, 0.0, 0.0, -0.55, -0.55, 0.0, 0.0, 0.0, 0.0, 0.0, 0.0, 0.0, 0.0, 0.0, 0.0, 0.0, 0.0, 0.0, 0.0, 0.0, -0.59, -0.59, -0.59, -0.54, -0.54, -0.54, -0.54, -0.59, -0.59, -0.59, -1.07, -1.19, -1.19, -0.55, -1.08, -1.19, -1.08, 0.0, 0.0, 1.79, 1.34, 1.58, 1.9, 0.63, 0.0, 0.0, 1.2, 1.26, -0.99, -6.42, -7.15, -2.44, 0.77, 0.0, -1.34, -2.48, -3.53, -2.82, -2.14, -2.15, -1.43, -1.79, -1.76, -1.71, -0.71, 0.0, 0.66, 2.4, 2.11, 1.41, 0.72, 1.3, 0.72, 0.72, 1.73, 1.73, 1.73, 1.08, 1.08, 1.08, 1.08, 0.55, 0.55, 0.55, 0.63, 0.63, 0.57, 0.0, 0.57, 0.0, 0.0, 0.0, 0.0, 0.0, 0.0, 0.0, 0.0, 0.0, 0.0, 0.0, 0.0, 0.0, 0.0, 0.0, 0.0, 0.0, 0.0, 0.0, 0.0, 0.0, 0.0, 0.0, 0.0, 0.0, 0.0, 0.0, 0.0, 0.0, 0.0, -0.59, -0.59, -0.59, -0.54, -0.54, -0.54, -0.59, -0.59, -0.59, -1.16, -1.19, -1.19, -1.08, -0.55, -0.61, -0.63, 0.0, 0.0, 1.58, 2.24, 1.9, 1.2, 0.71, -0.0, -0.0, 0.45, 1.2, 0.0, -4.75, -6.17, -2.36, 3.16, 4.67, 2.22, -1.5, -4.23, -5.47, -4.08, -3.33, -1.42, -1.2, -1.19, 0.0, 0.0, 1.52, 2.18, 2.26, 1.65, 1.4, 0.71, 0.67, 0.69, 0.69, 1.73, 1.73, 1.73, 1.73, 1.19, 1.08, 1.08, 1.08, 1.08, 0.55, 0.55, 0.55, 0.63, 0.63, 0.57, 0.57, 0.0, 0.0, 0.0, 0.0, 0.0, 0.0, 0.0, 0.0, 0.0, 0.0, 0.0, 0.0, 0.0, 0.0, 0.0, 0.0, 0.0, 0.0, 0.0, 0.0, 0.0, 0.0, 0.0, 0.0, 0.0, 0.0, 0.0, 0.0, 0.0, -0.53, -0.59, -1.16, -1.07, -1.19, -1.19, -0.61, -0.54, -1.16, -1.16, -1.19, -1.19, -1.08, -1.08, -0.55, -0.61, -0.57, 0.0, 0.0, 0.89, 1.58, 0.8, -0.0, -0.0, -0.0, 0.45, 1.2, 1.03, 0.0, -2.33, -1.57, 0.8, 3.14, 2.4, -0.72, -4.29, -5.98, -4.87, -2.72, -0.67, 0.0, 0.0, 0.0, 0.72, 0.72, 1.47, 1.4, 1.52, 0.77, 0.67, 0.0, 0.0, 0.0, 1.88, 1.88, 1.73, 1.73, 1.19, 1.19, 1.19, 1.08, 1.08, 1.08, 0.55, 0.55, 0.55, 0.63, 0.63, 0.57, 0.0, 0.0, 0.0, 0.0, 0.0, 0.0, 0.0, 0.0, 0.0, 0.0, 0.0, 0.0, 0.0, 0.0, 0.0, 0.0, 0.0, 0.0, 0.0, 0.0, 0.0, 0.0, 0.0, 0.0, 0.0, 0.0, 0.0, 0.0, 0.0, 0.0, -0.59, -1.16, -1.07, -1.19, -1.19, -1.19, -1.19, -1.07, -1.07, -1.19, -1.19, -1.08, -1.08, -1.08, -1.08, -1.11, 0.0, 0.0, 0.0, 0.0, -0.0, -0.0, -0.0, 1.34, 0.89, 1.79, 2.84, 2.24, 0.0, -3.07, -3.14, -3.16, -3.13, -3.01, -2.82, -2.88, -2.07, -1.61, -0.61, 0.0, 0.0, 0.0, 0.0, 0.0, 0.71, 0.71, 0.71, 0.0, 0.0, 0.0, 0.0, 0.0, 2.4, 2.4, 1.73, 1.73, 1.73, 1.19, 1.19, 1.19, 1.19, 1.08, 1.08, 1.08, 1.08, 0.55, 0.63, 0.63, 0.63, 0.0, 0.0, 0.0, 0.0, 0.0, 0.0, 0.0, 0.0, 0.0, 0.0, 0.0, 0.0, 0.0, 0.0, 0.0, 0.0, 0.0, 0.0, 0.0, 0.0, 0.0, 0.0, 0.0, 0.0, 0.0, 0.0, 0.0, 0.0, 0.0, -1.14, -1.16, -1.19, -1.19, -1.08, -1.08, -1.19, -1.19, -1.19, -1.19, -1.08, -1.08, -1.08, -1.08, -1.08, -1.23, -1.27, 0.0, 0.0, 0.0, 0.0, 0.0, 0.0, 0.0, 0.45, 0.89, 0.71, 0.77, 0.0, -0.78, -4.65, -7.0, -6.97, -5.16, -2.08, -0.72, -1.28, -1.16, -1.24, -0.7, -0.67, 0.0, 0.0, 0.0, 0.0, 0.0, 0.0, 0.0, 0.0, 0.0, 0.0, 0.0, 2.18, 2.18, 1.7, 1.73, 1.73, 1.73, 1.19, 1.19, 1.19, 1.19, 1.19, 1.08, 1.08, 1.08, 0.55, 0.55, 0.55, 0.55, 0.0, 0.0, 0.0, 0.0, 0.0, 0.0, 0.0, 0.0, 0.0, 0.0, 0.0, 0.0, 0.0, 0.0, 0.0, 0.0, 0.0, 0.0, 0.0, 0.0, 0.0, 0.0, -0.61, -0.61, -0.55, -0.57, 0.0, -0.58, -1.14, -1.19, -1.23, -1.23, -1.23, -1.23, -1.08, -1.19, -1.19, -1.19, -1.08, -1.08, -1.08, -1.08, -1.23, -1.23, -1.13, 0.0, 0.0, 0.0, 0.0, 0.0, 0.0, 0.0, 0.45, 0.0, -0.8, 0.0, 2.21, 3.24, 0.0, -4.61, -7.0, -4.87, -2.09, -0.69, -0.7, -1.32, -1.4, -1.4, -0.63, 0.0, 0.0, 0.0, 0.0, 0.0, 0.0, 0.0, 0.0, 0.0, -0.71, 0.0, 2.18, 2.18, 1.7, 1.88, 1.73, 1.73, 1.73, 1.19, 1.19, 1.19, 1.19, 1.19, 1.08, 1.08, 1.08, 0.55, 0.55, 0.55, 0.0, 0.0, 0.0, 0.0, 0.0, 0.0, 0.0, 0.0, 0.0, 0.0, 0.0, 0.0, 0.0, 0.0, 0.0, 0.0, 0.0, 0.0, 0.0, 0.0, -0.55, -0.61, -0.61, -0.61, -0.55, -1.23, -1.73, -1.72, -1.16, -1.23, -1.11, -1.11, -1.23, -1.23, -1.23, -1.08, -1.08, -1.08, -1.08, -1.08, -1.08, -1.76, -1.76, -1.76, -1.19, -1.13, 0.0, 0.0, 0.0, 0.0, 0.0, 0.89, 0.45, -0.45, -2.12, -1.98, 0.0, 4.3, 4.66, 0.78, -3.23, -4.56, -2.0, -0.64, 0.0, 0.0, -0.7, -0.61, -0.59, 0.0, 0.0, 0.0, -0.74, -0.67, -0.71, -0.73, -0.77, -0.77, -0.77, -0.77, 2.18, 2.18, 1.7, 1.7, 1.7, 1.73, 1.73, 1.73, 1.73, 1.19, 1.19, 1.19, 1.08, 1.08, 1.08, 1.08, 0.55, 0.55, 0.0, 0.0, 0.0, 0.0, 0.0, 0.0, 0.0, 0.0, 0.0, 0.0, 0.0, 0.0, 0.0, 0.0, 0.0, 0.0, 0.0, 0.0, 0.0, -0.55, -0.55, -0.55, -0.61, -0.61, -1.19, -1.19, -1.88, -1.7, -1.07, -0.55, -0.57, -1.11, -1.23, -1.23, -1.23, -1.23, -1.23, -1.23, -1.23, -1.08, -1.08, -1.76, -1.76, -1.76, -1.76, -1.27, 0.0, 0.0, 0.0, 0.0, 0.89, 1.34, 0.0, -0.89, -2.12, -1.9, -2.2, -1.07, 0.79, 3.16, 1.56, -0.61, -1.7, -0.61, 0.0, 0.0, 0.0, 0.0, -0.66, -0.66, -0.67, -0.74, -1.49, -1.44, -1.44, -1.58, -1.52, -1.52, -1.52, -1.52, 2.18, 2.18, 1.7, 1.7, 1.7, 1.7, 1.55, 1.73, 1.73, 1.73, 1.73, 1.19, 1.19, 1.08, 1.08, 1.08, 0.55, 0.55, 0.55, 0.0, 0.0, 0.0, 0.0, 0.0, 0.0, 0.0, 0.0, 0.0, 0.0, 0.0, 0.0, 0.0, 0.0, 0.0, 0.0, 0.0, 0.0, -0.55, -0.55, -0.55, -0.61, -0.61, -1.19, -1.19, -1.19, -1.19, -1.19, -0.55, -1.08, -1.08, -1.23, -1.08, -1.08, -1.08, -1.23, -1.23, -1.23, -1.23, -1.08, -1.23, -1.76, -1.73, -1.76, -1.08, 0.0, 0.0, 1.9, 1.26, 1.34, 0.89, 0.0, -1.34, -2.68, -3.2, -4.74, -5.38, -2.25, 1.56, 5.46, 4.71, 2.35, 1.4, 0.69, 0.0, -0.72, -0.71, -0.71, -1.36, -2.12, -2.31, -2.23, -2.23, -3.06, -3.06, -2.23, -2.23, -2.23, -2.23, 2.18, 2.18, 1.7, 1.7, 1.7, 1.7, 1.7, 1.7, 1.73, 1.73, 1.73, 1.73, 1.19, 1.19, 1.08, 1.08, 0.55, 0.55, 0.55, 0.0, 0.0, 0.0, 0.0, 0.0, 0.0, 0.0, 0.0, 0.0, 0.0, 0.0, 0.0, 0.0, 0.0, 0.0, 0.0, -0.57, -0.57, -0.63, -0.55, -0.55, -0.55, -0.61, -1.19, -1.19, -1.19, -1.19, -1.19, -1.08, -1.08, -1.08, -1.08, -1.08, -1.19, -1.08, -1.08, -1.23, -1.23, -1.23, -1.08, -1.23, -1.76, -1.73, -1.73, -1.23, 0.0, 0.0, 1.9, 1.26, 2.0, 1.34, 0.0, -1.34, -2.6, -3.45, -3.79, -2.98, -0.76, 0.0, 3.86, 7.84, 10.35, 9.24, 5.08, 0.69, -1.36, -2.17, -2.17, -2.83, -3.7, -3.8, -3.99, -3.7, -3.88, -3.88, -4.0, -3.15, -3.15, -3.15, 2.18, 2.18, 1.7, 1.7, 1.7, 1.7, 1.7, 1.7, 1.73, 1.73, 1.73, 1.73, 1.19, 1.19, 1.19, 1.19, 0.61, 0.55, 0.55, 0.0, 0.0, 0.0, 0.0, 0.0, 0.0, 0.0, 0.0, 0.0, 0.0, 0.0, 0.0, 0.0, 0.0, 0.0, -0.57, -0.57, -0.57, -0.57, -0.63, -0.55, -0.55, -0.61, -1.19, -1.19, -1.19, -1.19, -1.19, -1.08, -1.08, -1.08, -1.08, -1.19, -1.73, -1.73, -1.57, -1.23, -1.23, -1.08, -1.08, -1.08, -1.23, -1.57, -1.19, -1.08, -0.59, 0.0, 0.0, 0.0, 0.0, 0.0, -1.26, -2.0, -2.12, -2.15, -1.2, 0.0, 0.73, 0.78, 3.23, 7.69, 11.37, 12.21, 8.94, 5.06, 1.41, -2.0, -4.07, -5.09, -5.41, -5.21, -5.21, -4.6, -4.83, -4.6, -3.8, -3.91, -3.91, -3.91, 2.18, 2.18, 1.7, 1.7, 1.7, 1.7, 1.7, 1.7, 1.73, 1.73, 1.73, 1.73, 1.19, 1.19, 1.19, 1.19, 0.61, 0.61, 0.55, 0.55, 0.0, 0.0, 0.0, 0.0, 0.0, 0.0, 0.0, 0.0, 0.0, 0.0, 0.0, 0.0, 0.0, -0.59, -0.57, -0.57, -0.57, -0.57, -0.63, -0.55, -0.55, -1.19, -1.19, -1.19, -1.19, -1.19, -1.19, -1.57, -1.76, -1.57, -1.73, -1.73, -1.73, -1.73, -1.76, -1.76, -1.76, -1.76, -1.73, -1.73, -1.73, -1.73, -1.57, -1.23, -1.27, 0.0, 0.0, 0.0, 0.0, 0.0, -0.95, -1.34, -1.2, -1.26, 0.0, 1.26, 1.8, 2.51, 4.6, 6.95, 8.46, 8.71, 9.06, 9.6, 7.22, 1.43, -3.37, -6.44, -7.08, -6.24, -6.24, -5.49, -5.21, -5.3, -4.56, -4.29, -4.29, -4.29, 2.18, 2.18, 1.7, 1.7, 1.7, 1.7, 1.7, 1.7, 1.55, 1.73, 1.73, 1.73, 1.19, 1.19, 1.19, 1.19, 0.61, 0.61, 0.55, 0.55, 0.0, 0.0, 0.0, 0.0, 0.0, 0.0, 0.0, 0.0, 0.0, 0.0, 0.0, 0.0, -0.59, -0.59, -0.57, -0.57, -0.57, -0.57, -0.57, -0.63, -0.55, -1.08, -1.19, -1.19, -1.19, -1.73, -1.73, -1.57, -1.76, -1.76, -1.73, -1.73, -1.73, -1.94, -1.76, -1.76, -1.76, -1.76, -1.73, -1.73, -1.73, -1.73, -1.76, -1.76, -1.13, -1.6, 0.0, 0.0, 0.0, 0.0, 0.0, -1.34, -0.89, -0.63, 0.0, 0.8, 1.24, 3.79, 6.08, 6.39, 5.64, 6.28, 8.8, 11.71, 10.6, 6.58, 0.0, -4.87, -6.64, -6.28, -6.32, -5.37, -4.74, -4.46, -3.48, -2.79, -2.79, -2.79, 2.18, 2.18, 1.7, 1.7, 1.7, 1.7, 1.7, 1.7, 1.55, 1.73, 1.73, 1.19, 1.19, 1.19, 1.19, 1.19, 0.61, 0.61, 0.55, 0.55, 0.0, 0.0, 0.0, 0.0, 0.0, 0.0, 0.0, 0.0, 0.0, 0.0, 0.0, -0.59, -0.59, -0.59, -0.59, -0.57, -0.57, -0.57, -0.57, -0.63, -1.08, -1.08, -1.19, -1.19, -1.73, -1.73, -1.73, -1.94, -1.94, -1.94, -1.94, -1.94, -1.94, -1.94, -1.76, -1.76, -1.76, -1.76, -2.44, -2.2, -2.2, -2.44, -2.22, -2.22, -1.8, -1.74, -1.26, -1.34, 0.0, 0.0, 0.0, 0.0, -0.89, -0.89, -0.45, 0.63, 1.86, 3.51, 4.93, 5.09, 4.46, 5.41, 8.18, 10.12, 9.41, 6.7, -0.65, -4.0, -5.05, -4.71, -5.06, -3.49, -2.5, -2.4, -2.12, -1.34, -1.34, -1.34, 2.18, 1.7, 1.7, 1.7, 1.7, 1.7, 1.7, 1.7, 1.55, 1.73, 1.19, 1.19, 1.19, 1.19, 1.19, 1.19, 0.61, 0.61, 0.55, 0.55, 0.0, 0.0, 0.0, 0.0, 0.0, 0.0, 0.0, 0.0, 0.0, 0.0, -0.59, -0.59, -0.59, -0.59, -0.59, -0.57, -0.57, -0.57, -0.57, -0.63, -1.23, -1.08, -1.19, -1.73, -1.73, -1.73, -1.73, -1.94, -1.94, -1.94, -2.44, -2.44, -2.44, -2.44, -2.22, -2.22, -2.22, -2.22, -2.44, -2.44, -2.2, -2.86, -2.86, -2.48, -2.23, -1.98, -2.0, -2.24, -1.79, -0.89, 0.0, 0.0, -0.63, -1.34, -0.89, 0.0, 1.34, 2.68, 2.6, 3.49, 3.64, 4.56, 5.38, 5.45, 5.54, 2.13, 0.67, -2.6, -3.58, -2.79, -2.66, -2.53, -1.7, -0.63, -0.0, -0.0, -0.0, -0.0, 1.7, 1.7, 1.7, 1.7, 1.7, 1.7, 1.7, 1.7, 1.55, 1.19, 1.19, 1.19, 1.19, 1.19, 1.19, 1.19, 0.61, 0.55, 0.55, 0.0, 0.0, 0.0, 0.0, 0.0, 0.0, 0.0, 0.0, 0.0, 0.0, -0.59, -0.59, -0.59, -0.59, -0.59, -0.59, -0.59, -0.57, -0.57, -0.57, -1.23, -1.23, -1.08, -1.19, -1.73, -1.73, -1.73, -1.73, -1.94, -2.44, -2.44, -2.44, -2.44, -2.44, -2.44, -2.44, -2.22, -2.22, -2.22, -2.44, -2.86, -3.12, -3.12, -2.86, -3.15, -3.16, -2.53, -2.97, -3.13, -3.47, -2.54, -1.2, -0.45, -0.6, -0.6, -0.45, 0.0, 0.89, 1.79, 1.7, 1.9, 2.41, 2.98, 3.0, 1.54, 0.0, 0.0, 0.0, -1.2, -2.53, -2.24, -1.33, -1.61, -1.34, -0.6, -0.0, -0.0, -0.0, -0.0, 1.7, 1.7, 1.7, 1.7, 1.7, 1.7, 1.7, 1.7, 1.07, 1.19, 1.19, 1.19, 1.19, 1.19, 1.19, 0.61, 0.61, 0.55, 0.55, 0.0, 0.0, 0.0, 0.0, 0.0, 0.0, 0.0, 0.0, 0.0, 0.0, -0.59, -0.59, -0.59, -0.59, -0.59, -0.59, -0.59, -0.57, -0.57, -0.57, -1.23, -1.23, -1.08, -1.73, -1.73, -1.73, -1.73, -2.2, -2.44, -2.44, -2.44, -2.44, -2.44, -2.44, -2.44, -2.44, -2.44, -2.86, -3.15, -2.86, -2.86, -3.12, -3.49, -3.49, -3.48, -3.78, -3.35, -3.2, -3.58, -2.6, -2.8, -2.8, -2.6, -2.17, -1.86, -1.2, -0.45, 0.45, 1.34, 0.95, 0.57, 1.24, 2.41, 1.52, -0.8, -0.73, -0.72, 0.0, 0.0, -1.24, -1.34, -0.61, -1.61, -1.79, -1.24, -0.0, -0.0, -0.0, -0.0, 1.7, 1.7, 1.7, 1.7, 1.7, 1.7, 1.7, 1.07, 1.07, 1.19, 1.19, 1.19, 1.19, 1.19, 1.19, 0.61, 0.61, 0.55, 0.55, 0.0, 0.0, 0.0, 0.0, 0.0, 0.0, 0.0, 0.0, 0.0, -0.59, -0.59, -0.59, -0.59, -0.59, -0.59, -0.59, -0.59, -0.57, -0.57, -1.11, -1.23, -1.08, -1.73, -1.73, -1.73, -1.73, -2.2, -2.44, -2.44, -2.44, -2.44, -2.44, -2.44, -2.44, -2.86, -2.86, -2.86, -2.86, -3.15, -3.15, -3.2, -3.49, -3.49, -3.49, -3.79, -3.73, -4.0, -3.6, -3.82, -2.68, -2.91, -3.32, -3.51, -3.13, -2.68, -2.24, -0.89, -0.0, 0.0, 0.0, 0.0, 0.0, 0.54, 0.77, 0.0, 0.74, 0.0, 0.0, 0.0, -0.6, -1.34, -1.88, -1.88, -1.79, -1.9, -1.0, -0.65, -0.65, -0.65, 1.7, 1.7, 1.7, 1.7, 1.7, 1.7, 1.16, 1.07, 1.07, 1.19, 1.19, 1.19, 1.19, 1.19, 0.61, 0.61, 0.61, 0.55, 0.55, 0.0, 0.0, 0.0, 0.0, 0.0, 0.0, 0.0, 0.0, 0.0, -0.59, -0.59, -0.59, -0.59, -0.59, -0.59, -0.59, -0.59, -0.66, -1.11, -1.11, -1.23, -1.76, -1.73, -1.73, -1.73, -2.2, -2.2, -2.44, -2.44, -2.44, -2.44, -2.44, -2.44, -2.86, -2.86, -2.86, -2.86, -2.86, -3.15, -3.48, -3.49, -3.49, -4.11, -3.79, -4.07, -4.07, -4.37, -4.27, -4.11, -2.6, -2.24, -2.24, -2.6, -3.07, -3.13, -2.68, -2.17, -1.7, -1.79, -1.86, -0.99, -0.6, 0.0, 0.0, 1.53, 2.4, 1.58, 0.7, 0.42, -1.24, -2.68, -2.5, -1.2, -0.8, -1.2, -1.2, -0.61, -0.61, -0.61, 1.7, 1.7, 1.7, 1.7, 1.7, 1.07, 1.07, 1.07, 1.07, 1.19, 1.19, 1.19, 1.19, 1.19, 0.61, 0.61, 0.61, 0.55, 0.0, 0.0, 0.0, 0.0, 0.0, 0.0, 0.0, 0.0, 0.0, 0.0, -0.59, -0.59, -0.59, -0.59, -0.59, -0.59, -0.59, -0.59, -1.27, -1.11, -1.11, -1.23, -1.76, -1.73, -1.73, -2.2, -2.2, -2.2, -2.44, -2.44, -2.44, -2.44, -2.44, -2.86, -2.86, -2.86, -2.86, -2.86, -3.15, -3.48, -3.48, -3.49, -3.79, -4.11, -4.11, -4.65, -4.65, -4.65, -4.55, -4.6, -4.11, -2.0, -1.2, -1.34, -2.17, -2.6, -2.17, -2.24, -2.24, -2.68, -3.07, -2.4, -2.12, -1.4, -1.55, 0.0, 1.55, 1.54, 1.2, 0.66, -0.53, -1.86, -1.86, -0.0, -0.0, -0.54, -0.65, -0.7, -0.7, -0.7, 1.7, 1.7, 1.7, 1.55, 1.55, 1.07, 1.07, 1.07, 1.19, 1.19, 1.19, 1.19, 1.19, 0.61, 0.61, 0.61, 0.55, 0.55, 0.0, 0.0, 0.0, 0.0, 0.0, 0.0, 0.0, 0.0, 0.0, -0.59, -0.59, -0.59, -0.59, -0.59, -0.59, -0.59, -1.13, -1.13, -1.27, -1.11, -1.11, -1.76, -1.76, -1.73, -1.73, -2.2, -2.2, -2.44, -2.44, -2.44, -2.44, -2.44, -2.86, -2.86, -2.86, -2.86, -2.86, -3.2, -3.48, -3.48, -3.79, -3.79, -4.11, -4.11, -4.37, -4.65, -4.65, -4.65, -4.65, -4.8, -4.6, -3.6, -1.6, -1.2, -2.24, -2.4, -2.4, -1.79, -2.24, -3.13, -3.51, -3.07, -3.04, -3.22, -3.64, -3.02, -0.76, 0.0, 0.0, 0.61, 1.27, -0.0, -0.0, -0.0, -0.0, -0.0, -0.53, -0.7, -0.7, -0.7, 1.88, 1.88, 1.73, 1.73, 1.19, 1.07, 1.07, 1.19, 1.19, 1.19, 1.19, 1.19, 0.61, 0.61, 0.61, 0.55, 0.55, 0.55, 0.0, 0.0, 0.0, 0.0, 0.0, 0.0, 0.0, 0.0, 0.0, -0.59, -0.59, -0.59, -0.59, -0.59, -0.59, -1.13, -1.13, -1.13, -1.27, -1.11, -1.58, -1.76, -1.76, -1.94, -2.2, -2.2, -2.44, -2.44, -2.44, -2.44, -2.44, -2.86, -2.86, -2.86, -2.86, -3.49, -3.49, -3.49, -3.48, -3.79, -4.07, -3.79, -4.11, -4.71, -4.71, -5.01, -5.21, -4.84, -4.65, -4.93, -4.8, -4.15, -3.04, -2.17, -2.68, -2.8, -2.91, -2.63, -2.68, -2.68, -3.13, -3.13, -3.13, -3.74, -4.43, -4.71, -3.91, -2.36, -0.78, 0.0, 1.27, 1.27, 0.66, -0.0, -0.0, -0.0, -0.0, -0.0, -0.0, -0.0, 1.88, 1.88, 1.73, 1.73, 1.19, 1.19, 1.19, 1.19, 1.19, 1.19, 1.19, 0.61, 0.61, 0.61, 0.55, 0.55, 0.55, 0.0, 0.0, 0.0, 0.0, 0.0, 0.0, 0.0, 0.0, 0.0, -0.57, -0.59, -0.59, -0.59, -0.59, -0.59, -1.13, -1.13, -1.13, -1.27, -1.27, -1.11, -1.76, -1.76, -1.76, -1.94, -2.44, -2.44, -2.44, -2.44, -2.44, -2.44, -2.86, -2.86, -2.86, -2.86, -3.12, -3.49, -3.49, -3.49, -3.79, -4.07, -4.07, -4.11, -4.37, -4.71, -4.71, -5.21, -5.21, -5.21, -5.21, -4.65, -4.55, -4.4, -4.11, -3.07, -3.13, -2.6, -2.91, -3.07, -3.13, -2.24, -2.24, -2.68, -2.68, -3.74, -4.43, -5.28, -5.38, -4.01, -2.28, -1.32, 0.0, 0.61, 0.59, -0.0, -0.0, -0.0, -0.0, -0.0, -0.0, -0.0, 1.73, 1.73, 1.73, 1.19, 1.19, 1.19, 1.19, 1.19, 1.19, 1.19, 0.61, 0.61, 0.61, 0.55, 0.55, 0.55, 0.55, 0.0, 0.0, 0.0, 0.0, 0.0, 0.0, 0.0, 0.0, 0.0, -0.57, -0.59, -0.59, -0.59, -0.59, -1.13, -1.13, -1.13, -1.13, -1.27, -1.27, -1.8, -1.58, -1.76, -1.76, -2.44, -2.44, -2.44, -2.44, -2.44, -2.44, -2.86, -2.86, -2.86, -2.86, -3.2, -3.49, -3.49, -3.49, -3.79, -4.07, -4.07, -4.41, -4.37, -4.71, -4.71, -4.94, -5.21, -5.21, -5.47, -5.21, -4.65, -4.65, -4.55, -4.27, -2.8, -2.6, -2.24, -1.34, -2.17, -2.63, -1.79, -1.79, -2.68, -3.13, -4.66, -5.09, -5.64, -5.2, -4.71, -3.16, -1.53, -1.32, 0.0, -0.0, -0.0, -0.0, -0.0, -0.0, -0.0, -0.0, -0.0, 1.73, 1.73, 1.19, 1.19, 1.19, 1.19, 1.19, 1.19, 1.19, 0.61, 0.61, 0.61, 0.55, 0.55, 0.55, 0.55, 0.0, 0.0, 0.0, 0.0, 0.0, 0.0, 0.0, 0.0, 0.0, -0.57, -0.57, -0.59, -0.59, -0.59, -1.13, -1.13, -1.13, -1.13, -1.13, -1.6, -1.8, -1.8, -1.58, -1.76, -1.76, -2.22, -2.44, -2.44, -2.44, -2.44, -2.86, -2.86, -2.86, -2.86, -3.49, -3.49, -3.49, -3.49, -3.79, -4.07, -4.07, -4.07, -4.65, -4.37, -4.71, -4.94, -5.29, -5.21, -5.21, -5.47, -5.47, -4.84, -4.65, -4.55, -4.8, -4.4, -4.0, -1.58, 0.0, -1.34, -2.6, -2.12, -2.24, -2.68, -3.51, -4.93, -5.09, -5.76, -5.4, -3.83, -2.3, -1.58, -0.78, -0.76, -0.71, 0.0, -0.0, -0.0, -0.0, 0.0, 0.0, 0.0, 1.73, 1.73, 1.19, 1.19, 1.19, 1.19, 1.19, 1.19, 1.19, 0.61, 0.61, 0.61, 0.55, 0.55, 0.55, 0.55, 0.0, 0.0, 0.0, 0.0, 0.0, 0.0, 0.0, 0.0, 0.0, -0.57, -0.57, -0.59, -0.59, -0.59, -1.13, -1.13, -1.13, -1.13, -1.13, -1.6, -1.8, -1.8, -1.58, -1.76, -1.76, -2.22, -2.44, -2.44, -2.44, -2.44, -2.86, -2.86, -2.86, -2.86, -3.49, -3.49, -3.49, -3.49, -3.79, -4.07, -4.07, -4.07, -4.65, -4.37, -4.71, -4.94, -5.29, -5.21, -5.21, -5.47, -5.47, -4.84, -4.65, -4.55, -4.8, -4.4, -4.0, -1.58, 0.0, -1.34, -2.17, -2.12, -2.24, -2.68, -3.51, -4.4, -5.46, -5.49, -5.3, -3.87, -3.01, -1.53, -0.76, 0.0, 0.0, 0.0, 0.0, 0.0, 0.57, 0.54, 0.54, 0.54]}]